GFSNGP_925_thetae_015.txt.gz
Theta_e
322 322 320 320 320 320 320 319 321 319 315 315 316 316 317 318 319 320 322 322 321 318 314 312 310 307 305 305 304 301 300 299 299 298 298 297 296 296 295 294 294 294 294 294
325 322 320 320 319 318 319 319 318 317 317 317 317 317 317 317 319 319 320 320 319 316 313 311 309 306 306 305 303 301 300 299 298 298 297 296 295 295 295 294 294 294 294 294
321 320 321 324 321 319 318 318 318 319 318 318 319 317 317 317 318 318 319 319 317 315 313 311 309 306 306 304 302 300 299 298 297 297 296 295 294 294 294 294 294 294 293 293
322 318 327 317 317 316 318 318 318 317 317 317 317 318 318 318 318 318 317 317 316 315 313 312 309 305 304 303 301 299 298 297 297 295 294 293 293 294 294 294 294 293 293 293
330 319 317 315 314 314 316 316 315 317 316 316 317 318 318 318 317 317 317 316 315 314 313 311 308 305 303 301 299 297 297 296 294 293 293 293 293 293 293 294 293 293 292 292
320 330 331 319 315 316 317 315 315 315 315 315 317 320 316 317 316 316 315 315 315 314 312 310 306 303 301 299 299 297 296 294 293 293 292 292 293 293 293 293 293 292 291 290
324 328 322 316 314 316 316 319 317 317 316 316 317 316 318 316 316 315 315 315 314 313 311 307 302 299 300 298 297 294 293 293 292 292 292 293 292 292 293 293 292 292 291 290
325 327 326 313 316 319 322 317 317 316 316 318 318 317 317 316 314 315 315 314 311 308 304 300 299 298 297 295 293 293 293 292 292 292 292 292 292 292 293 292 292 292 291 290
320 321 317 315 315 316 317 317 317 316 316 316 316 316 316 316 314 312 313 308 304 300 298 298 295 293 293 294 293 292 292 292 292 292 292 292 292 292 292 292 292 291 291 290
318 316 315 315 315 315 315 315 315 315 316 316 317 317 316 315 311 308 306 301 298 298 296 293 294 293 292 292 292 292 291 291 291 291 291 290 290 291 292 292 291 291 290 289
318 316 315 315 315 316 316 316 317 317 317 317 315 316 315 313 307 303 299 297 297 294 294 293 293 292 292 291 291 291 290 291 291 291 291 291 290 290 290 290 291 290 290 290
319 318 318 316 316 316 316 317 315 315 315 310 310 312 310 303 300 299 296 295 294 294 294 292 292 292 291 291 290 290 291 291 291 291 291 291 290 290 289 289 289 289 287 287
317 316 316 316 315 312 311 309 307 307 305 304 302 302 301 297 296 295 295 294 294 293 293 292 292 292 292 291 290 290 290 290 290 291 291 291 290 290 289 288 289 289 287 286
315 316 318 312 312 307 306 305 302 301 300 299 298 297 296 296 295 295 295 295 294 293 292 292 292 292 292 291 290 290 290 290 290 291 291 291 291 290 290 289 289 289 289 288
311 311 309 306 305 304 301 299 299 298 298 298 298 298 297 297 297 296 295 294 293 292 292 292 292 292 292 291 291 291 291 291 291 290 290 289 287 287 289 289 289 289 288 288
308 307 306 304 302 300 299 299 299 299 299 298 297 297 297 297 296 294 293 293 292 293 293 292 292 292 292 291 292 292 292 291 290 290 289 289 288 289 289 289 289 289 289 287
306 304 303 302 300 300 300 300 299 299 299 298 297 293 292 292 292 293 293 292 292 290 290 290 290 291 291 292 292 292 292 292 291 290 289 289 289 288 288 288 288 288 288 288
305 303 301 301 301 300 299 299 296 295 293 292 290 290 290 290 291 291 291 290 290 290 291 291 291 291 291 291 292 292 292 292 291 290 290 289 289 289 288 288 288 288 288 288
300 300 300 299 299 296 294 293 292 292 291 290 290 290 291 291 290 290 290 289 290 291 293 292 291 290 290 290 290 291 291 290 290 290 289 288 288 288 288 288 287 287 288 288
299 297 295 294 293 294 293 291 293 293 292 290 290 290 290 289 289 289 289 290 291 292 291 290 289 290 290 290 290 290 289 289 289 289 288 288 287 287 287 287 287 287 287 287
295 294 293 292 290 290 290 290 290 289 290 288 287 287 287 287 286 286 287 287 288 288 286 285 285 286 286 287 287 289 289 289 289 288 288 287 286 286 288 287 287 287 287 286
296 293 292 292 291 289 288 287 287 286 286 286 286 285 285 286 286 286 285 286 286 284 283 284 284 284 284 284 285 286 286 287 288 287 287 286 285 284 284 285 286 285 285 285
295 293 291 290 289 288 287 285 285 285 285 284 285 284 284 285 285 284 285 284 282 282 281 282 281 281 283 284 285 286 286 286 287 285 284 282 282 281 282 282 281 281 282 282
293 290 288 287 287 287 287 285 284 284 283 283 283 282 282 281 281 281 281 280 279 278 279 278 276 276 278 279 280 280 281 280 279 279 279 278 278 278 278 278 278 278 278 278
289 288 288 288 288 287 284 283 284 284 282 282 281 281 280 280 279 279 278 277 277 276 276 276 274 273 275 275 275 275 275 275 274 274 274 275 275 274 275 275 274 274 274 275
290 289 286 284 283 283 282 281 281 281 280 280 279 279 279 278 277 277 276 276 275 275 275 274 273 272 272 272 272 272 272 272 271 270 271 271 271 271 271 271 271 271 272 272
284 284 285 284 281 280 279 279 279 279 278 277 277 278 277 276 275 275 275 274 274 273 273 273 272 271 270 270 270 270 270 269 269 268 268 268 268 269 268 268 268 269 269 269

GFSNGP_925_thetae_018.txt.gz
Theta_e
321 321 323 323 321 321 319 321 322 322 318 318 317 318 318 319 320 319 320 323 323 323 320 317 316 313 310 308 306 305 304 301 300 300 299 299 298 297 296 296 295 295 294 294
327 323 322 322 321 321 319 319 319 319 319 318 319 318 318 317 317 319 318 319 321 322 320 317 315 313 310 307 306 306 303 300 300 299 299 298 297 296 296 295 295 295 294 294
327 321 322 323 324 321 321 319 319 320 320 318 318 318 318 318 317 318 318 318 319 320 319 317 315 313 310 307 307 305 301 300 299 298 297 296 295 295 294 294 294 295 294 294
331 320 326 317 318 317 318 318 318 317 318 317 319 319 317 317 317 318 318 317 318 318 317 316 314 312 309 307 306 303 301 299 298 297 295 294 294 294 294 294 294 294 294 293
332 325 319 317 316 315 316 316 317 317 316 317 317 317 318 318 318 317 317 316 316 316 316 315 314 312 307 306 303 301 299 298 297 294 294 293 293 293 293 294 294 294 293 293
325 331 330 322 317 316 316 318 316 316 316 316 316 326 320 318 317 316 315 315 315 315 315 314 313 309 306 302 299 298 297 295 296 293 293 293 293 293 293 293 293 293 293 291
327 329 328 318 316 316 319 324 318 317 317 318 319 320 318 318 317 315 315 315 315 313 307 307 303 302 300 298 297 295 295 294 293 293 293 293 293 292 292 292 293 293 292 291
331 327 326 315 316 319 324 320 318 318 318 319 318 318 317 316 316 315 313 314 308 299 298 299 299 298 296 295 294 295 295 293 293 292 293 293 292 292 292 292 293 293 292 291
325 327 321 316 316 317 316 317 317 317 316 317 317 316 317 317 316 312 310 303 300 299 297 295 294 294 295 294 294 293 293 292 292 292 292 292 291 290 290 291 292 292 292 291
323 316 316 317 315 315 315 316 316 317 317 317 318 317 317 316 312 306 302 300 299 296 295 295 293 293 293 293 292 292 292 292 291 291 291 291 290 290 290 290 291 292 291 291
319 318 317 316 317 317 317 317 317 317 316 313 313 314 314 305 302 300 299 297 296 295 294 294 293 293 292 293 292 291 291 291 291 291 291 291 291 291 290 290 289 289 289 290
327 319 319 318 318 316 317 314 312 312 309 306 306 304 302 301 298 297 295 295 295 294 294 293 293 293 293 292 292 291 290 290 291 291 291 291 291 291 291 290 289 289 289 289
319 318 317 316 312 310 309 309 307 307 305 303 300 299 299 297 296 295 295 295 295 294 294 294 293 293 292 292 292 291 290 290 291 290 291 292 291 291 291 291 290 289 289 289
315 315 316 313 310 308 305 303 301 300 299 299 298 298 297 296 296 297 297 296 295 294 294 293 293 293 293 292 292 291 291 291 290 290 291 292 291 290 288 287 288 289 289 289
312 310 309 307 306 304 301 300 300 299 299 299 299 299 298 298 297 296 295 294 294 293 293 293 293 293 293 292 292 292 291 291 291 292 291 290 290 289 288 288 288 289 289 289
309 308 307 305 302 301 300 300 300 300 299 299 297 296 295 296 295 294 294 293 293 293 292 291 290 290 291 292 292 292 292 292 292 292 292 291 290 289 289 289 289 289 289 289
307 306 304 302 301 301 301 300 299 298 296 294 292 290 291 291 293 292 292 291 291 290 291 291 291 292 292 292 292 292 293 293 293 293 291 290 290 290 289 289 289 288 288 288
306 304 302 301 301 300 298 295 294 293 292 291 290 290 290 289 289 290 290 290 290 291 292 292 290 290 290 290 291 290 290 291 292 292 291 291 290 290 289 289 288 288 288 287
302 301 300 299 297 295 294 293 292 291 290 290 290 288 288 288 288 287 287 288 289 291 288 287 286 285 286 286 287 287 288 289 289 290 290 290 290 289 289 288 288 287 288 287
298 297 295 294 293 292 291 291 293 292 289 288 288 287 286 286 286 286 287 287 288 285 284 284 283 284 284 285 285 284 284 285 286 287 289 290 290 289 287 287 287 287 287 287
295 294 292 290 289 289 289 288 288 287 287 286 286 286 285 286 286 286 286 286 285 282 282 281 282 280 279 279 280 283 284 285 285 286 287 287 289 287 286 285 284 285 286 286
294 292 291 290 289 288 287 287 286 286 285 285 284 284 284 285 284 284 283 283 281 280 279 280 278 277 276 278 280 280 280 281 282 283 285 285 285 284 282 282 282 281 282 282
293 292 290 290 289 288 286 285 285 284 283 284 282 282 282 282 282 282 282 280 279 277 277 277 275 274 274 276 276 276 276 276 276 277 277 278 278 278 278 278 278 278 277 277
292 290 289 288 288 288 287 285 285 284 283 283 282 281 280 281 281 280 279 277 277 276 276 276 274 273 273 273 273 273 273 274 272 272 272 273 274 274 274 274 274 273 273 273
289 289 288 288 289 287 285 284 285 284 282 282 281 280 280 279 278 277 277 276 275 275 274 274 273 273 272 271 271 271 271 271 270 269 270 270 270 270 270 270 270 270 270 270
291 289 286 285 284 284 282 282 282 282 280 281 279 279 279 278 277 276 275 275 274 273 273 272 272 271 271 270 270 269 269 269 268 268 267 267 267 268 267 267 267 267 268 268
286 286 286 284 282 281 280 280 280 279 279 278 277 277 278 277 276 275 274 273 273 272 271 271 270 270 269 269 268 268 267 267 266 266 266 265 265 265 265 265 266 266 267 267

GFSNGP_925_thetae_021.txt.gz
Theta_e
322 323 322 322 323 322 319 319 318 318 319 317 315 315 314 314 315 317 315 319 317 316 314 315 314 312 312 310 307 305 303 303 302 301 301 299 298 298 296 296 296 295 294 295
323 322 321 320 319 319 319 319 317 317 316 315 314 313 313 312 315 315 314 313 317 317 315 315 313 311 310 309 307 305 303 304 302 300 299 298 297 297 295 295 295 294 295 294
322 316 316 313 315 318 319 318 318 316 314 315 314 315 313 313 313 315 314 314 315 316 316 314 314 312 310 309 307 305 305 303 299 298 297 296 296 295 294 294 294 294 295 294
316 313 310 315 316 315 317 316 314 314 315 314 313 312 313 311 313 313 313 313 313 314 316 315 315 314 312 308 306 306 303 298 298 297 295 295 294 293 293 294 293 294 294 294
314 315 315 315 316 317 315 315 314 313 313 314 314 313 315 314 312 312 312 311 313 314 315 315 314 313 309 306 305 299 296 295 295 295 294 294 293 293 293 293 293 293 293 293
314 316 312 316 315 315 315 314 315 314 314 314 312 310 316 314 313 311 312 305 302 303 304 307 307 305 300 296 296 295 295 295 295 294 293 292 293 293 293 292 292 292 293 293
310 310 315 319 315 314 311 313 316 315 315 315 316 314 314 315 313 309 303 299 298 298 297 296 297 296 295 294 295 295 296 295 293 293 293 293 292 293 292 292 292 292 293 292
314 317 319 316 314 312 316 315 314 314 314 314 314 314 314 313 309 302 299 298 296 295 295 295 295 295 295 294 294 294 294 293 293 293 292 292 292 292 292 291 291 291 292 292
317 315 316 314 313 316 313 313 314 314 314 314 315 314 313 307 300 299 297 295 295 295 295 295 296 297 295 294 297 298 296 293 293 292 292 292 292 291 290 290 290 290 291 292
315 315 316 313 313 313 314 314 315 313 312 312 312 307 302 300 299 298 296 296 296 295 294 294 294 294 294 293 293 292 292 292 291 291 291 291 291 290 291 290 290 289 289 289
316 316 316 317 315 315 313 312 308 305 304 305 302 301 300 299 297 296 296 295 295 295 294 294 293 293 293 292 292 292 291 291 290 291 291 291 291 291 291 291 290 290 289 289
310 317 316 315 312 310 309 307 306 304 302 301 300 299 298 297 296 295 295 294 294 294 294 294 293 293 293 292 292 292 291 291 290 290 291 291 291 291 291 291 290 290 290 289
317 314 311 308 306 305 305 303 302 301 300 299 298 297 296 295 295 295 295 295 295 294 294 293 293 293 292 292 292 292 291 291 290 290 290 290 291 291 291 291 289 288 288 288
311 311 310 309 305 302 300 299 299 298 298 297 297 296 296 296 296 296 296 296 294 294 293 293 293 292 292 292 292 292 292 292 291 291 291 291 290 291 290 289 288 287 288 288
307 307 305 303 301 300 300 299 299 298 298 297 297 297 296 296 295 293 293 293 292 292 292 291 290 291 291 291 291 292 292 292 292 292 291 291 292 291 290 289 288 288 288 288
307 304 303 301 300 299 300 299 298 297 295 293 292 292 291 292 292 291 291 290 290 289 289 290 290 291 291 290 290 290 290 290 290 290 291 291 291 290 290 289 288 288 288 288
303 302 301 301 300 300 299 297 294 294 292 290 289 289 289 289 288 288 287 288 288 289 288 287 285 286 286 286 286 287 287 287 288 289 289 289 290 290 289 289 289 288 287 288
304 302 301 300 298 296 294 292 290 289 289 289 288 288 288 287 287 286 285 286 288 288 285 284 283 282 283 283 283 283 283 283 283 284 285 286 287 288 289 289 289 288 288 288
301 299 298 296 295 293 291 290 289 288 288 288 287 287 286 286 285 286 286 287 284 283 282 281 281 281 280 279 278 279 281 281 282 283 284 284 284 285 286 287 289 288 287 286
296 295 293 292 291 291 291 290 288 287 286 286 285 285 286 286 286 286 285 283 281 280 279 279 279 277 276 276 278 278 279 279 279 279 280 281 283 285 285 286 285 285 284 285
292 291 290 289 289 289 289 288 287 286 285 285 283 284 285 283 284 283 283 281 279 278 277 278 276 274 274 275 275 275 275 276 275 276 276 277 278 279 279 279 280 280 280 280
291 290 289 288 287 287 286 286 285 285 284 282 282 282 282 282 281 282 279 278 277 276 275 276 274 273 273 273 273 272 272 273 271 272 272 273 274 274 275 275 275 275 274 274
291 290 289 288 287 286 285 284 283 283 284 282 281 281 280 281 280 278 278 277 276 275 274 274 273 273 272 271 271 271 270 271 269 269 269 270 270 270 271 271 270 270 270 271
290 289 289 288 286 285 285 285 284 282 283 282 280 280 280 279 278 277 276 276 275 274 273 273 272 272 271 270 270 269 269 269 268 267 267 267 267 268 268 267 267 268 268 268
289 288 288 287 286 284 283 284 282 281 281 280 279 279 279 278 277 276 275 274 274 273 272 271 271 270 270 269 269 268 267 267 266 266 266 265 265 265 264 265 265 266 266 267
288 286 284 283 282 281 281 281 280 279 280 278 277 277 278 277 276 275 274 272 272 272 271 270 269 269 268 268 267 267 266 265 265 265 264 263 263 262 263 263 263 264 264 265
285 283 282 280 280 279 279 279 278 278 278 277 276 276 277 275 274 273 272 271 271 270 269 269 268 268 267 267 266 266 265 264 264 264 263 262 261 261 261 261 262 262 263 263

GFSNGP_925_thetae_024.txt.gz
Theta_e
317 321 321 320 320 321 319 317 316 316 316 315 314 313 311 311 312 317 318 317 314 313 314 315 314 314 310 310 308 305 303 303 302 302 301 300 299 298 297 296 296 295 295 294
321 318 319 320 318 318 318 318 317 316 316 313 311 310 310 312 312 311 312 315 315 313 313 313 313 312 311 309 306 304 304 303 302 301 301 299 297 296 295 295 294 294 294 294
319 314 314 315 315 316 317 317 317 317 314 312 312 312 312 312 312 311 312 313 316 313 313 313 313 313 312 310 306 304 303 302 302 300 298 295 294 295 294 294 293 294 294 294
314 310 314 317 314 314 314 313 313 313 312 313 314 313 311 309 310 310 311 311 311 314 314 314 314 313 312 308 305 303 302 300 298 296 295 295 296 294 293 293 293 293 293 294
312 313 314 315 314 313 313 315 313 312 312 313 313 313 314 312 310 309 306 302 301 301 307 311 312 309 307 304 302 298 296 295 294 294 295 294 294 293 292 293 293 292 292 292
312 313 311 312 314 314 311 314 314 312 313 313 310 310 314 311 307 301 299 298 298 299 299 299 299 302 298 295 295 294 294 294 295 295 296 296 293 293 293 292 292 292 292 292
304 307 310 312 314 311 310 309 314 313 313 314 314 311 311 302 300 299 297 296 296 296 295 295 296 296 295 294 294 295 296 297 297 298 297 294 293 292 292 292 292 291 291 291
314 312 314 315 313 311 309 313 312 312 312 312 312 311 305 301 299 297 296 296 296 295 295 296 296 296 295 295 296 297 298 298 298 295 293 292 292 292 292 291 290 290 290 291
313 313 313 312 313 314 311 311 311 312 313 313 311 305 300 299 296 295 295 295 295 295 296 296 296 297 295 295 296 297 296 294 293 293 292 291 291 291 291 290 290 290 290 289
315 315 316 312 313 313 313 313 310 310 311 308 303 300 299 298 296 296 296 296 295 295 294 293 294 293 293 293 292 292 292 292 291 291 290 290 291 291 290 290 290 290 290 289
313 316 316 315 313 311 307 304 304 302 302 301 300 299 298 297 296 295 295 295 294 294 294 293 293 293 293 293 292 292 291 291 291 290 290 290 290 290 291 291 290 291 290 290
311 313 313 312 309 307 306 304 303 301 300 299 298 297 296 295 295 294 294 294 294 294 293 293 293 293 292 292 292 292 291 291 291 291 290 289 290 290 290 290 291 290 290 290
316 312 308 305 304 303 302 301 300 299 298 297 296 296 295 294 294 295 294 294 294 293 293 292 292 291 291 291 291 291 291 291 291 291 291 291 290 290 289 290 290 290 290 289
307 307 307 306 302 300 299 299 298 297 297 296 296 295 295 295 294 294 293 293 292 291 290 290 291 291 290 290 290 290 290 290 290 289 289 289 288 288 289 289 290 290 290 290
305 305 304 300 299 298 298 297 297 297 296 295 295 294 294 292 291 290 290 290 290 290 288 288 287 286 287 287 286 286 286 286 286 286 287 288 288 288 288 288 289 289 288 288
303 301 301 300 299 298 298 298 297 294 292 291 290 291 291 290 289 288 287 287 288 287 286 285 283 283 283 283 283 283 283 283 283 283 283 283 285 286 287 288 288 289 288 287
302 300 299 299 298 298 298 296 294 291 289 288 288 288 288 287 286 286 286 287 287 285 283 281 281 281 281 280 278 279 279 280 280 281 281 282 282 283 284 284 284 285 287 288
302 300 299 298 297 295 292 290 289 289 289 288 287 287 285 285 285 285 286 286 285 282 280 280 279 278 277 276 277 278 277 277 278 279 279 278 279 280 281 283 284 284 285 286
300 299 297 295 294 291 289 288 288 288 287 287 286 285 285 285 285 285 284 282 280 279 278 278 277 275 275 275 275 275 274 275 275 274 275 275 276 277 278 277 278 279 280 281
295 294 293 292 290 289 288 287 287 287 286 285 286 286 286 285 284 283 282 278 277 277 277 276 275 273 273 273 273 272 272 273 271 271 271 271 273 273 273 274 274 274 274 274
292 290 290 289 289 289 287 286 286 285 284 284 284 283 282 282 282 282 280 279 276 275 275 275 273 272 272 271 271 271 270 270 269 269 268 269 270 269 270 270 270 270 271 271
290 289 288 288 288 286 286 285 285 283 282 282 282 281 281 280 279 278 277 276 275 274 274 273 273 272 271 270 270 269 269 269 267 267 267 267 267 267 268 267 267 267 268 268
289 288 287 286 286 285 285 284 284 282 281 281 280 280 280 279 278 277 276 275 274 274 273 272 271 271 270 269 269 268 268 267 266 266 265 265 264 265 265 264 265 265 266 266
289 288 287 286 285 284 283 282 283 282 281 280 280 280 279 278 276 275 275 274 273 272 272 271 270 270 269 268 268 267 266 266 265 265 264 264 263 263 263 263 263 263 263 264
289 288 285 285 285 284 284 282 281 281 279 278 278 278 278 277 276 274 274 273 272 271 270 270 269 268 268 267 267 266 265 265 264 264 263 263 262 262 261 261 261 262 262 262
287 285 283 281 281 281 281 280 279 279 278 277 276 276 276 275 274 273 272 271 271 270 269 269 268 267 267 266 266 265 265 264 263 263 262 262 261 261 261 260 260 260 261 261
282 281 280 279 278 279 278 277 277 277 277 275 275 275 275 274 273 272 271 270 269 269 268 268 267 266 266 265 265 265 264 263 263 262 261 261 261 260 260 260 259 260 260 260

GFSNGP_925_thetae_027.txt.gz
Theta_e
314 314 319 319 319 318 317 316 316 316 315 315 313 311 309 308 312 316 318 316 314 313 313 315 315 314 312 310 308 309 306 305 304 304 302 301 300 299 298 297 296 296 295 295
320 317 317 319 317 316 316 317 315 315 315 312 311 311 310 310 310 311 315 316 313 312 312 313 314 314 311 310 310 308 306 305 303 302 301 300 299 297 296 296 295 294 294 294
317 314 314 315 314 315 315 314 315 315 313 312 313 311 309 309 310 311 312 313 314 313 311 313 313 314 312 312 310 307 303 301 300 300 299 298 295 294 294 295 296 297 294 293
312 310 315 316 314 313 313 312 312 312 312 313 312 310 309 308 308 308 307 306 303 302 309 312 312 311 311 309 305 302 301 300 300 299 295 295 296 295 296 297 295 297 293 293
314 314 314 315 312 312 313 314 312 312 312 312 312 311 311 308 304 302 300 298 298 298 299 303 305 307 307 303 300 298 295 295 294 295 295 296 297 297 297 296 295 293 292 292
309 313 315 314 312 312 311 313 312 311 312 312 310 308 312 307 301 298 297 296 296 296 298 298 297 298 297 294 294 294 294 295 296 297 297 297 298 298 295 293 292 292 292 292
305 308 309 309 312 309 312 311 312 310 311 310 311 309 306 300 297 296 296 296 296 296 296 296 296 296 294 294 294 296 297 297 296 297 297 297 296 294 292 292 292 291 290 290
307 307 314 311 312 310 309 311 311 311 311 311 308 303 300 298 296 296 296 295 295 295 295 295 296 296 295 296 297 297 297 298 298 298 297 295 293 292 292 291 291 290 290 290
313 312 310 311 311 310 310 311 309 310 311 310 304 301 299 296 296 295 295 295 295 295 295 295 296 296 295 296 297 297 296 294 293 292 292 291 291 291 291 291 290 290 290 290
312 314 314 313 312 311 310 310 310 311 309 305 300 299 297 296 296 295 294 294 294 294 293 293 293 293 293 292 292 292 292 291 291 290 290 289 290 290 290 290 290 290 290 289
313 315 314 313 311 306 304 303 302 301 301 300 299 298 297 296 295 294 294 294 294 293 293 292 292 292 292 292 291 291 291 291 291 291 290 290 290 289 289 290 290 290 290 290
312 313 312 313 307 305 304 303 301 300 299 298 297 296 295 294 294 293 293 293 293 292 292 291 291 290 291 291 291 291 290 290 290 290 290 290 289 290 291 290 290 290 290 290
312 309 307 304 302 302 301 300 299 298 297 296 296 295 295 294 293 293 293 293 291 290 290 290 290 289 288 288 288 287 287 286 286 286 286 286 287 287 286 287 288 289 289 290
305 305 305 304 302 300 299 298 297 296 296 295 295 295 294 292 292 291 290 290 289 289 288 287 286 285 285 285 284 284 283 283 282 282 282 282 283 284 285 285 286 287 287 288
303 304 303 299 298 297 296 296 296 296 295 295 295 294 292 291 289 288 288 288 287 286 284 284 283 282 282 281 280 279 279 279 280 280 280 281 281 281 282 282 283 284 284 284
301 300 299 299 297 296 296 296 295 294 293 292 292 291 290 288 287 286 287 287 286 283 281 282 281 279 278 278 278 278 278 278 278 278 279 279 279 279 280 280 281 281 282 282
300 299 298 298 297 296 296 295 293 291 290 290 289 288 287 286 286 286 286 284 282 281 280 279 278 277 276 276 276 276 275 276 276 276 276 276 275 276 277 277 277 277 276 276
301 300 299 298 297 294 292 291 290 289 288 288 287 286 285 285 284 284 284 282 281 279 278 277 276 275 275 275 275 274 274 273 272 273 273 272 272 273 272 273 274 274 273 273
299 298 296 294 293 291 290 289 289 288 287 285 284 284 284 284 283 282 281 280 278 278 277 276 275 274 273 273 272 272 272 271 270 270 269 269 270 269 269 270 270 270 270 270
295 294 292 291 290 289 288 287 287 286 285 285 285 285 283 283 283 281 279 277 276 277 276 274 273 272 272 271 271 270 270 269 268 268 267 267 267 267 267 268 267 267 267 267
293 291 290 289 288 287 287 286 285 284 284 285 284 282 281 282 282 280 279 277 276 275 275 273 272 272 271 270 269 269 269 268 267 266 266 265 265 265 265 265 264 265 265 265
290 289 289 288 286 285 285 285 283 283 283 282 282 281 280 279 278 277 276 276 275 274 273 272 271 271 270 269 269 268 267 267 266 265 265 264 263 263 263 263 263 263 263 263
289 288 287 287 286 284 284 283 282 282 281 281 281 280 280 279 278 277 276 275 274 273 272 271 270 270 269 268 268 267 266 265 265 264 264 263 263 262 262 261 262 262 262 262
288 287 286 285 284 283 283 282 281 281 280 280 280 279 278 277 276 275 274 274 273 272 271 270 269 268 268 267 267 266 265 265 264 264 263 262 262 262 262 261 261 261 261 261
287 285 284 284 284 283 282 281 280 279 279 279 278 278 277 276 276 274 273 272 271 271 270 269 268 268 267 266 266 265 265 264 263 263 262 261 261 261 261 261 261 260 260 260
285 283 282 281 281 280 280 280 279 277 276 276 276 277 276 275 274 273 271 271 270 269 269 268 267 267 266 265 265 265 264 263 263 262 261 261 260 260 260 260 260 260 260 260
280 280 279 279 278 278 278 277 277 277 276 275 275 275 274 273 272 271 270 269 268 268 268 267 266 266 265 264 264 264 263 263 262 261 261 260 260 260 260 260 260 260 260 260

GFSNGP_925_thetae_030.txt.gz
Theta_e
314 315 316 317 318 315 316 315 316 316 313 314 312 311 310 308 307 311 317 317 316 315 313 314 315 314 313 312 309 307 307 307 306 304 302 300 300 299 298 297 297 296 296 295
318 317 317 318 316 315 315 315 314 313 314 310 310 310 309 310 311 312 316 316 315 313 312 313 315 315 315 313 312 310 308 305 303 301 300 300 299 298 297 296 296 295 294 295
318 314 314 315 314 315 314 313 314 315 313 310 312 311 310 309 310 310 308 306 306 308 309 311 312 314 313 311 309 308 306 302 301 301 300 299 298 297 296 294 295 297 297 297
312 311 315 315 313 313 313 312 311 311 311 310 310 309 307 306 307 305 303 301 299 299 301 304 308 309 309 308 307 304 302 301 300 299 297 295 294 294 297 298 298 297 297 294
314 314 313 315 312 312 312 312 310 310 311 310 309 309 309 302 300 299 298 296 296 297 298 300 302 302 302 299 298 298 296 296 295 295 294 295 297 297 297 297 297 296 293 293
307 313 315 314 313 309 310 312 309 311 311 311 309 305 310 301 298 296 295 295 296 297 297 297 297 299 298 294 294 294 294 295 296 297 297 296 296 296 296 296 296 294 292 291
303 308 312 310 310 308 313 313 309 310 310 309 309 306 302 297 296 295 295 295 295 295 294 294 295 295 294 295 296 297 296 296 296 296 296 296 297 297 296 295 293 292 291 291
307 307 318 308 311 311 310 309 309 308 308 308 304 300 298 297 296 295 294 294 295 294 294 295 295 296 296 296 297 297 297 298 298 297 296 295 293 293 292 291 291 291 290 290
314 314 311 308 310 308 307 309 309 309 309 307 302 300 297 296 295 294 293 293 294 294 295 296 296 296 296 295 294 293 293 292 291 291 290 290 290 290 290 290 290 290 289 289
312 312 310 311 311 309 309 309 307 308 308 304 301 298 296 295 294 293 293 293 293 293 292 291 292 291 291 291 291 291 290 290 290 290 290 290 290 290 289 289 289 289 288 288
310 314 314 312 311 308 305 304 303 301 301 299 298 296 296 295 294 293 293 293 292 291 290 290 290 290 290 291 291 290 290 289 289 288 288 288 287 287 287 287 287 287 287 288
314 312 312 310 307 304 304 302 301 300 298 297 297 296 295 294 293 292 292 292 291 290 289 289 289 288 287 287 288 287 286 285 284 283 282 282 282 282 282 282 283 284 285 286
313 309 305 303 301 301 301 299 298 298 297 296 295 295 294 292 292 292 291 290 289 288 288 287 286 285 284 284 284 282 281 281 280 280 280 281 281 281 281 281 281 282 283 283
305 306 305 304 303 299 298 297 296 295 295 295 294 294 293 292 291 290 289 288 287 286 285 284 283 282 281 280 279 279 279 279 279 279 279 279 279 279 279 279 279 280 280 280
303 303 304 299 298 296 296 296 295 294 294 293 293 293 292 290 289 288 287 286 284 284 283 282 280 279 278 278 278 277 277 277 277 277 277 276 276 276 277 277 277 277 277 276
300 300 299 298 297 296 296 295 295 294 294 293 292 291 290 288 287 287 287 285 283 281 280 279 278 277 277 277 277 275 275 275 275 274 274 274 273 273 274 274 275 274 274 273
300 299 297 297 296 296 295 294 294 293 292 292 290 288 287 287 287 284 282 282 281 279 278 277 276 276 276 275 275 274 273 273 272 272 272 271 271 271 270 271 271 271 270 270
302 300 299 297 296 294 293 292 291 291 290 289 286 286 286 286 285 282 280 280 279 278 276 275 275 274 274 273 273 272 272 271 271 270 269 269 269 268 268 268 268 267 267 267
298 297 296 295 294 292 291 290 289 287 286 286 285 284 284 283 283 282 280 279 278 278 276 275 274 273 272 272 271 271 270 270 269 268 267 267 266 266 266 266 265 265 265 265
294 293 292 291 290 290 288 287 287 285 285 284 284 283 282 281 281 279 278 277 277 277 275 274 273 272 271 271 270 269 269 268 267 266 266 265 264 264 264 264 263 263 263 263
291 290 289 289 288 288 287 287 286 284 283 283 283 282 281 280 279 278 278 276 275 275 274 273 272 271 271 270 269 268 268 267 266 265 265 264 264 263 263 263 262 262 262 262
290 289 288 287 286 285 285 285 284 283 283 282 282 281 280 278 278 278 277 276 274 274 273 272 271 270 270 269 268 267 267 266 265 264 264 263 263 262 262 262 262 262 261 261
289 288 287 286 285 283 283 283 283 282 281 280 280 279 279 278 277 276 275 274 274 273 272 271 270 270 269 268 267 267 266 265 264 264 263 263 262 261 261 261 261 261 261 261
287 286 285 284 283 282 281 280 280 280 280 280 279 279 278 276 275 275 274 274 273 272 271 270 269 269 268 267 266 266 265 264 264 263 262 262 261 261 261 261 261 261 261 261
285 284 284 284 283 283 281 280 279 279 279 278 278 278 277 276 276 274 273 272 271 271 270 269 268 267 267 266 265 265 265 264 263 263 262 261 261 260 260 260 260 260 260 260
283 282 281 281 281 281 280 280 278 278 277 277 276 276 276 275 274 273 272 271 270 269 269 268 267 267 266 265 264 264 264 263 263 262 262 261 260 260 260 260 260 260 260 260
279 279 279 277 277 277 278 278 277 276 276 276 275 275 274 273 273 271 270 269 268 268 267 267 266 266 265 264 264 264 263 263 262 262 261 260 260 259 259 259 259 259 260 260

GFSNGP_925_thetae_033.txt.gz
Theta_e
315 314 316 318 319 318 319 320 324 322 317 318 317 317 315 311 311 312 315 319 320 321 320 318 317 316 316 314 315 314 310 308 308 308 304 302 300 300 299 298 297 296 296 295
316 316 315 318 317 318 317 316 317 316 317 315 314 312 312 311 315 316 315 316 315 315 316 316 316 316 314 312 311 310 308 306 303 303 301 300 299 299 297 296 296 295 294 293
319 315 318 320 318 317 317 316 318 320 319 314 313 313 312 314 313 311 309 309 309 310 309 310 311 311 312 310 309 306 304 303 302 302 301 300 299 298 296 295 294 295 296 295
319 314 324 320 313 315 317 316 314 314 314 313 312 310 309 310 310 307 305 304 303 303 303 303 304 305 305 304 303 302 302 301 300 299 298 297 296 295 296 297 297 296 295 296
322 320 317 315 314 316 317 318 314 314 312 312 311 311 308 303 303 302 301 300 299 299 299 299 299 299 299 299 298 298 297 297 297 296 296 296 297 297 297 296 296 296 296 296
313 321 323 319 314 311 312 318 313 312 313 313 312 319 315 303 300 299 298 298 298 297 297 297 296 297 297 297 297 296 297 296 296 296 297 297 296 296 296 296 297 297 295 294
313 322 319 314 311 311 319 321 313 313 314 314 313 312 308 300 299 298 297 296 296 296 296 296 297 297 297 297 297 297 297 297 297 297 296 297 297 297 296 295 294 292 291 291
314 320 324 311 309 317 318 311 312 313 313 313 307 302 301 300 298 297 297 296 296 296 296 296 297 297 296 296 297 297 297 296 294 293 293 292 291 291 290 290 290 290 290 290
321 324 318 311 315 311 310 312 311 313 311 308 304 302 300 299 298 297 296 296 296 296 296 295 295 295 293 292 292 291 291 290 290 290 290 290 290 290 290 289 289 289 289 289
318 316 314 313 310 311 310 312 310 311 310 307 305 301 299 297 296 296 295 295 294 293 292 291 290 290 290 290 290 290 290 289 288 288 288 287 287 287 287 287 286 287 287 287
315 313 314 314 312 312 309 309 308 307 307 305 301 299 298 297 296 295 294 292 292 291 291 289 289 288 289 289 289 288 287 286 285 284 284 284 283 283 283 283 283 284 284 284
319 315 316 315 314 308 309 308 306 304 301 300 300 299 297 296 294 293 292 291 291 290 289 287 286 285 285 286 286 285 284 283 282 282 282 282 281 281 280 280 280 280 280 281
315 311 308 305 305 305 305 304 302 302 300 299 298 297 295 294 293 292 291 291 290 288 286 284 283 282 282 281 281 281 281 280 280 280 280 280 279 279 279 280 279 278 278 279
307 308 309 306 307 302 301 300 298 297 297 297 296 295 294 293 291 291 290 288 286 285 285 283 281 280 279 279 279 279 279 277 278 278 278 278 277 277 277 277 277 277 276 276
304 303 306 302 300 298 297 297 297 296 295 295 294 294 293 292 291 289 287 285 284 284 282 281 280 278 278 278 278 278 277 277 276 276 276 275 275 275 275 275 275 275 274 274
301 301 301 301 299 298 298 297 297 296 295 295 293 292 291 290 288 285 284 284 284 282 280 278 278 277 277 277 276 276 276 274 274 274 274 273 273 273 273 272 273 272 272 271
302 301 299 299 298 297 297 297 296 295 294 293 290 289 289 288 286 285 283 282 280 278 277 277 277 276 276 275 275 274 274 273 272 272 272 271 271 271 270 270 271 270 269 268
304 301 299 298 297 296 295 295 294 293 291 289 288 287 287 287 285 283 281 279 278 277 276 275 275 275 274 273 273 272 271 271 271 270 270 269 268 268 268 267 268 267 267 267
299 298 296 295 294 293 293 292 290 288 287 287 287 287 286 284 282 281 279 278 278 277 275 274 274 273 272 272 271 270 270 269 269 268 267 267 266 266 265 266 266 265 265 265
293 292 292 291 290 290 288 287 287 287 286 286 285 284 283 281 280 279 279 279 279 277 274 274 273 272 271 270 270 269 268 268 267 267 265 265 264 264 264 263 263 263 263 263
291 290 290 289 288 288 287 287 286 285 284 285 284 282 281 279 279 278 278 278 276 275 274 273 272 271 270 270 269 268 267 267 266 265 264 263 263 263 262 262 262 262 262 262
289 288 288 287 286 285 285 285 284 283 282 282 281 280 278 277 277 277 277 277 275 274 273 272 271 270 270 269 268 267 267 266 265 264 264 263 262 261 261 261 261 260 260 260
288 287 286 285 284 282 282 282 282 282 280 280 279 279 279 278 277 277 276 274 274 273 272 271 270 269 269 268 267 267 266 265 265 264 263 262 261 260 260 260 260 259 259 259
286 285 283 283 282 282 281 280 280 279 279 279 279 279 278 276 275 275 275 274 273 272 271 270 269 269 268 267 266 266 265 265 264 263 263 262 261 261 260 260 260 260 259 259
285 284 284 283 282 281 280 280 280 279 279 278 277 277 276 276 276 274 273 272 271 271 270 269 269 268 267 266 266 265 264 264 263 263 262 262 261 261 260 260 259 259 259 259
281 280 279 279 280 280 280 279 279 278 277 277 276 276 275 275 274 273 272 271 270 269 268 268 268 267 266 266 265 264 264 263 263 262 262 261 261 260 260 259 259 259 259 259
276 277 276 276 275 275 276 276 277 276 275 275 275 274 273 273 272 271 270 269 269 268 267 267 266 266 265 265 264 264 263 263 262 262 261 261 260 259 259 259 259 259 259 259

GFSNGP_925_thetae_036.txt.gz
Theta_e
318 317 317 317 318 320 321 321 323 323 322 321 320 321 320 319 317 318 318 320 324 327 328 326 326 325 325 322 320 319 318 318 317 315 314 313 312 309 307 304 301 299 297 297
320 318 318 318 318 318 321 320 321 321 321 320 320 320 320 318 318 320 321 322 323 324 324 324 323 322 320 318 316 315 314 314 310 309 308 306 304 301 299 298 297 296 296 296
321 320 320 322 321 319 320 321 322 322 321 320 320 320 320 319 320 320 319 319 318 318 318 317 317 317 316 314 312 312 310 309 307 306 304 302 299 297 296 295 295 296 295 296
323 321 330 320 320 320 320 321 321 321 320 320 319 318 317 318 318 316 315 314 314 313 312 312 311 311 310 310 309 308 307 306 304 303 301 300 298 297 296 295 295 296 296 296
330 324 321 319 318 320 321 321 321 321 320 319 317 315 314 312 314 312 311 310 309 309 308 308 307 307 306 305 305 304 303 302 301 301 300 299 298 298 298 299 299 298 297 297
321 325 329 321 320 319 319 323 320 320 320 318 317 321 319 310 308 308 307 307 306 306 305 305 304 304 304 304 303 302 301 300 300 300 300 300 299 299 299 299 297 296 296 296
326 329 324 321 318 317 322 324 321 320 319 319 319 319 315 309 308 306 305 304 304 304 304 304 303 303 303 302 301 300 300 300 300 299 299 298 298 297 296 296 295 295 294 293
326 331 330 318 316 321 323 322 320 320 320 320 317 313 310 308 306 305 304 303 303 303 303 302 302 302 301 301 300 299 297 295 294 294 293 294 293 293 292 292 293 293 292 292
325 324 322 318 321 319 320 320 319 319 318 319 313 311 309 307 306 305 304 303 302 302 301 301 301 300 299 297 296 295 294 293 293 292 292 292 293 292 292 292 292 291 290 290
322 322 321 320 318 317 316 318 317 317 317 315 312 310 308 306 305 304 303 302 301 299 298 296 296 295 295 294 293 293 292 292 291 290 290 289 289 288 287 287 287 286 286 287
323 322 318 318 319 319 316 315 315 315 316 314 311 309 307 306 304 303 302 300 299 297 296 294 293 293 292 292 292 291 290 289 288 287 286 286 285 285 284 284 282 283 283 283
327 322 322 322 321 318 317 315 315 315 314 312 310 308 306 304 302 301 299 298 297 295 294 292 291 290 289 290 290 289 287 286 285 285 285 284 284 284 282 280 279 279 279 279
320 316 317 315 313 317 316 315 314 313 313 311 308 306 304 303 300 298 297 297 295 293 291 289 288 286 286 285 285 285 284 284 283 283 283 282 282 282 282 282 279 278 277 277
313 312 315 312 315 311 312 311 309 311 309 308 305 303 302 300 297 297 296 295 292 289 287 286 285 284 283 283 283 282 281 280 282 282 281 281 280 280 280 280 280 279 278 276
310 308 309 308 308 307 307 305 306 306 304 304 302 301 300 298 298 296 293 290 289 287 286 285 283 282 282 281 281 281 281 280 280 280 278 277 278 278 278 278 278 278 277 276
307 307 307 307 304 304 304 304 305 303 302 301 301 299 298 297 294 292 289 288 286 286 285 281 281 281 281 280 280 280 277 276 277 278 277 277 277 277 276 276 276 276 275 274
308 307 305 305 304 303 304 303 302 301 299 299 297 296 294 292 289 287 284 282 281 280 280 280 280 279 278 278 278 279 278 276 275 276 276 275 275 275 274 274 274 274 273 272
308 306 306 305 303 302 301 300 299 298 297 295 291 289 288 287 286 283 281 280 279 279 278 277 277 277 276 275 276 275 275 275 274 274 274 273 272 272 272 272 272 272 271 271
303 302 301 301 300 299 298 295 292 290 289 289 288 288 286 285 283 281 280 279 279 278 277 276 275 275 274 273 274 273 273 273 273 272 272 270 271 271 271 270 270 270 270 269
295 295 294 292 291 290 289 289 288 288 288 287 286 284 283 282 281 281 281 281 280 277 276 274 274 273 273 271 272 272 272 272 271 271 270 270 270 269 269 268 268 268 268 268
290 290 289 289 288 288 288 288 287 287 287 286 285 283 281 280 280 280 280 278 276 275 274 274 274 273 272 272 271 271 271 270 270 270 269 269 268 268 268 268 267 267 267 267
289 288 288 287 286 286 285 285 284 283 282 281 280 280 279 279 278 278 278 278 276 275 274 274 272 271 270 270 270 270 270 269 269 269 268 268 267 267 267 266 266 266 265 265
287 286 285 284 284 283 282 282 282 282 282 281 281 281 281 280 279 280 279 276 275 274 273 273 271 270 269 270 270 269 269 268 268 267 267 267 266 266 265 265 264 263 264 264
285 284 284 283 283 283 282 281 281 280 280 280 279 279 279 279 277 276 275 274 273 273 272 271 270 269 269 269 269 268 267 268 267 267 266 265 265 265 264 264 263 262 262 262
284 284 284 283 283 283 282 281 281 280 280 279 278 278 277 277 278 275 274 273 272 272 272 269 269 268 268 268 268 267 267 267 267 266 265 265 264 264 263 263 262 261 260 260
280 280 279 279 280 281 281 281 280 280 280 279 278 277 276 275 274 274 272 271 271 270 270 269 268 267 267 267 267 266 266 266 266 265 264 263 263 263 262 261 260 260 260 259
276 277 278 277 276 277 277 277 278 277 277 277 277 276 275 274 272 272 271 271 270 269 269 268 268 267 266 266 266 266 265 265 264 263 262 262 262 261 261 260 259 258 258 257

GFSNGP_925_thetae_039.txt.gz
Theta_e
320 319 319 320 321 320 321 321 324 323 322 322 322 321 320 322 321 320 320 320 322 328 330 330 331 330 330 330 329 327 326 326 324 321 319 316 314 313 312 310 309 307 304 300
320 319 318 318 318 318 318 319 319 319 320 321 321 319 319 320 320 321 322 323 324 327 329 329 329 328 327 325 324 323 322 321 319 318 316 315 313 311 309 306 302 302 299 298
323 319 320 322 319 319 319 319 319 321 321 321 321 320 320 320 320 322 323 323 325 326 327 326 325 323 321 319 318 317 315 313 312 311 309 307 304 302 300 299 298 298 297 297
326 327 328 321 319 320 319 319 320 319 320 321 321 320 321 321 321 322 322 322 322 321 320 319 318 317 316 315 314 313 311 310 309 308 305 303 302 300 299 298 298 296 296 296
329 327 321 319 319 321 320 320 320 321 321 321 320 321 320 319 321 320 320 319 317 316 315 314 313 313 312 311 310 309 308 307 306 305 304 303 302 301 300 299 299 299 300 299
326 326 327 321 320 320 320 324 320 320 320 321 320 323 321 318 318 317 315 314 313 313 312 311 310 310 309 308 307 306 305 305 304 304 303 302 301 300 300 300 299 298 298 297
329 327 323 320 320 321 325 322 322 320 321 320 320 321 321 316 315 313 313 312 311 311 310 309 309 308 308 306 305 304 304 304 303 302 301 301 300 300 299 298 298 297 295 295
328 329 331 321 321 322 323 324 323 323 322 321 320 320 317 315 314 313 312 310 310 310 309 308 308 307 306 305 304 303 302 301 300 298 298 298 297 295 294 295 295 295 295 294
325 325 324 323 323 322 321 321 323 323 321 320 322 318 316 314 313 311 310 309 309 308 307 307 306 306 305 303 301 300 299 297 296 295 295 295 295 294 294 293 292 292 290 290
323 323 322 323 322 321 322 323 323 322 321 320 321 317 315 313 312 311 310 309 308 307 306 305 304 303 302 300 299 297 296 295 294 294 293 292 291 290 290 290 289 288 288 288
321 319 320 322 322 323 322 321 320 319 319 320 319 316 314 313 312 311 309 308 306 305 303 301 300 299 298 297 296 295 294 293 292 290 290 289 288 287 286 284 282 284 284 284
326 321 325 323 322 321 322 321 319 319 318 319 317 315 314 312 311 309 308 306 304 302 300 299 297 296 296 295 294 292 291 290 289 289 288 287 287 285 283 282 280 279 278 279
321 320 320 321 318 317 320 320 319 318 318 317 316 314 313 311 309 307 305 304 302 300 298 296 295 293 292 292 291 290 289 287 286 287 286 286 285 285 286 282 281 280 279 277
319 317 317 317 318 315 316 318 315 317 317 316 314 312 310 309 306 304 303 302 300 297 294 292 290 288 288 287 286 286 285 284 286 285 285 284 284 283 283 283 282 282 279 278
315 314 314 312 312 312 312 312 314 315 314 314 312 310 308 306 304 303 301 299 295 292 290 288 286 285 285 285 285 284 284 284 284 283 281 281 281 281 281 280 280 280 280 279
313 312 312 312 313 311 310 310 311 311 310 310 308 307 305 303 302 298 295 293 290 288 284 283 283 283 282 283 282 281 279 279 281 281 280 280 279 280 279 279 279 279 279 278
313 315 314 312 310 308 308 308 308 307 306 306 305 303 301 296 291 287 284 283 282 282 281 281 281 280 280 281 282 281 281 278 277 279 278 278 278 278 277 277 277 277 277 275
308 308 308 310 308 307 305 305 304 303 302 298 292 291 289 286 285 283 282 281 280 279 279 279 279 278 278 278 278 278 278 277 277 277 276 276 275 275 275 275 275 275 275 274
299 300 300 301 301 299 296 293 291 290 290 289 288 286 284 283 281 281 280 280 279 279 277 277 276 276 275 275 276 276 276 276 276 275 275 273 275 275 274 274 273 273 273 273
291 291 291 290 291 290 290 289 289 287 287 286 285 284 283 282 281 282 282 281 280 278 276 275 275 275 273 273 274 274 274 274 274 274 274 272 274 273 273 272 271 272 272 272
289 288 288 288 288 288 288 288 288 287 286 285 284 283 283 282 280 280 280 278 276 276 275 275 275 274 273 273 273 274 273 274 273 273 273 273 272 272 272 272 271 271 271 270
288 288 287 286 286 285 285 285 284 283 282 282 281 281 280 280 280 280 279 278 276 276 276 275 273 272 272 272 273 273 273 273 272 272 272 272 271 271 271 270 270 269 269 268
287 286 285 285 284 284 283 283 283 283 283 282 282 282 281 281 281 280 279 277 276 276 276 274 272 271 270 272 272 272 272 271 271 271 270 270 270 269 269 268 268 267 267 267
285 285 284 284 283 283 283 282 281 281 280 280 280 280 281 281 279 278 277 276 274 275 274 272 271 270 269 272 271 271 270 270 270 270 270 269 268 268 268 267 267 266 266 265
282 282 283 283 283 283 283 282 282 281 281 280 280 279 279 278 279 277 276 274 273 274 273 270 269 269 270 270 270 270 269 269 269 268 267 267 267 267 267 266 266 265 264 263
281 281 280 279 280 281 281 281 280 280 281 280 279 278 277 277 276 275 274 273 273 272 272 271 270 269 270 270 269 269 268 268 268 268 267 266 266 266 266 265 264 264 263 263
277 278 278 277 277 277 277 277 277 277 276 277 278 276 276 275 274 274 273 273 272 271 271 270 270 269 268 267 267 268 267 267 267 266 265 265 265 265 264 264 263 262 261 260

GFSNGP_925_thetae_042.txt.gz
Theta_e
322 321 321 323 321 321 323 326 326 326 323 321 322 324 322 323 323 322 321 320 322 326 331 332 333 332 332 333 332 332 332 328 326 325 323 320 319 318 316 314 313 311 309 306
325 322 320 320 321 322 320 320 320 321 322 322 321 321 321 322 321 321 321 320 321 323 330 332 332 332 331 328 327 326 326 322 321 320 318 316 315 313 312 311 309 308 306 303
326 323 322 322 321 320 321 320 319 320 321 320 320 321 322 322 320 320 321 323 324 325 330 330 330 329 327 325 324 323 320 318 318 317 315 312 308 307 305 303 302 301 300 299
327 326 325 320 320 320 319 319 319 320 320 320 320 320 322 321 321 322 323 324 325 327 328 327 326 324 322 321 319 316 315 313 312 310 307 304 303 301 300 299 299 299 298 297
328 326 322 319 320 320 321 320 320 320 319 320 320 321 323 321 321 324 324 323 323 323 323 322 320 318 317 315 314 313 311 310 309 307 304 303 301 300 299 299 298 298 298 298
329 327 327 323 320 320 320 321 321 320 321 321 322 326 323 321 322 322 321 321 320 319 317 316 315 314 313 311 310 309 308 307 306 305 304 303 302 301 301 301 300 300 299 298
328 328 327 322 320 319 322 324 323 323 322 322 324 324 323 321 321 320 319 317 316 315 314 313 312 311 310 308 308 307 306 305 305 304 302 301 300 300 300 299 298 298 297 296
327 329 328 322 322 321 324 322 325 323 324 324 322 323 321 320 318 317 316 315 314 313 312 311 310 309 308 307 306 305 305 304 303 301 301 301 300 299 298 297 296 295 295 294
324 326 320 320 321 323 324 325 326 324 324 324 324 322 319 318 316 315 314 313 312 311 311 310 309 308 307 306 305 303 302 301 300 298 298 297 296 295 295 295 293 292 290 291
319 317 317 319 322 323 322 324 323 323 324 323 323 321 318 316 315 314 313 312 311 310 310 309 308 307 305 303 302 301 299 297 296 295 294 294 292 291 291 290 289 288 288 288
321 319 317 318 319 321 323 324 323 322 321 321 322 320 317 316 314 313 311 311 310 309 308 307 306 304 302 301 299 298 296 295 293 292 291 290 288 288 288 285 286 286 285 284
322 319 324 322 322 321 322 321 320 322 321 320 320 320 317 315 313 312 311 310 309 308 306 304 303 301 299 298 297 295 293 292 290 290 289 289 286 283 283 282 281 280 279 280
321 320 320 321 318 319 319 320 320 321 320 319 320 318 316 314 313 312 310 309 307 304 302 300 299 297 296 295 293 291 290 289 289 288 287 287 286 286 283 281 281 281 280 279
317 319 320 319 318 314 315 315 317 317 318 318 318 316 314 313 311 310 308 306 303 301 299 296 293 290 290 289 289 288 287 287 287 286 285 285 285 284 284 284 283 281 280 278
314 314 314 313 313 314 312 313 314 315 316 316 316 314 312 311 309 307 305 302 299 295 292 289 288 287 286 286 285 285 285 285 284 284 283 282 282 282 282 281 281 281 281 279
312 313 314 314 313 312 311 311 312 314 313 312 312 311 309 306 303 298 296 294 292 289 286 284 283 283 283 283 282 281 282 282 282 281 281 281 280 280 280 280 279 279 279 279
310 311 310 311 312 309 309 308 309 309 308 303 300 293 289 287 285 284 284 283 282 282 282 281 280 280 281 283 282 282 280 279 279 280 279 279 278 279 278 278 278 278 277 276
302 301 300 303 306 304 299 296 295 295 294 290 288 286 285 285 284 282 281 281 281 280 280 279 278 279 279 279 279 279 278 278 278 277 277 277 276 276 276 276 276 276 275 275
293 293 293 293 293 293 291 290 289 288 287 286 284 283 283 282 281 281 280 280 279 278 277 277 276 276 276 276 276 276 276 277 276 276 276 275 275 276 275 275 274 273 273 273
289 288 288 288 288 289 288 287 286 285 285 284 283 282 282 282 281 281 280 279 278 277 276 276 275 275 274 274 275 275 275 275 275 275 275 273 274 274 273 273 273 273 273 272
287 287 286 286 286 285 284 284 284 283 283 283 282 282 281 281 280 279 278 278 276 276 276 275 275 274 273 274 274 275 275 274 274 274 274 274 273 273 273 272 272 272 271 271
286 286 285 285 284 284 284 284 283 283 282 282 282 281 281 280 279 278 278 277 276 276 276 274 273 273 273 273 274 274 273 273 273 273 273 272 272 272 271 271 270 270 269 268
285 285 284 283 283 282 282 281 281 281 281 281 281 280 280 280 281 279 278 277 277 276 274 273 272 272 272 273 273 273 273 272 272 272 271 271 271 270 269 269 269 268 268 267
285 284 284 284 283 283 282 282 281 281 280 280 279 279 280 279 277 277 276 275 275 274 273 272 271 270 271 272 272 271 271 271 270 270 270 269 269 269 269 268 268 267 267 266
281 281 282 283 283 283 282 282 282 281 280 279 278 278 277 277 277 276 275 274 274 274 272 271 270 270 271 271 271 270 269 269 269 268 268 268 268 267 267 267 267 266 265 264
280 280 279 279 279 279 279 279 278 277 280 278 277 277 276 276 275 275 274 273 272 272 272 272 270 269 270 269 268 268 268 268 268 268 267 266 266 265 265 265 265 264 264 263
276 277 277 277 277 276 276 275 276 276 275 276 276 275 274 274 274 273 273 272 272 271 270 270 269 269 268 268 268 267 267 267 266 266 265 265 264 264 264 263 263 262 262 261

GFSNGP_925_thetae_045.txt.gz
Theta_e
318 320 321 323 322 320 320 321 326 324 324 321 320 319 319 321 322 322 319 317 318 323 324 326 328 330 331 334 334 333 332 331 330 327 326 326 325 325 323 321 317 316 313 311
320 319 320 320 320 320 320 321 324 324 323 321 320 318 319 320 320 320 318 316 316 325 327 330 330 329 327 329 331 332 330 325 324 324 323 322 320 318 317 315 314 312 309 307
320 320 321 321 320 319 320 320 320 321 319 317 318 321 319 318 318 318 317 316 317 322 329 329 329 327 325 326 325 325 323 321 321 320 317 315 314 313 312 311 310 309 307 305
318 320 326 320 319 318 318 318 317 317 317 316 316 316 316 317 316 317 317 320 321 325 325 327 327 325 324 324 320 320 319 318 316 314 312 311 311 308 306 305 305 302 300 299
322 322 321 321 318 318 318 318 317 317 316 316 315 315 319 316 318 317 318 319 321 324 324 324 323 323 321 316 315 314 312 310 309 308 306 304 302 301 300 300 299 299 298 297
320 323 324 320 319 318 318 318 318 318 318 317 317 317 316 317 319 318 318 319 318 320 320 320 319 319 315 312 311 310 309 307 306 304 302 301 300 299 298 298 297 297 297 299
319 324 320 320 318 318 320 318 318 319 320 320 318 317 316 317 318 317 317 316 317 316 314 315 315 314 311 310 308 308 307 305 304 303 302 301 300 300 300 299 299 299 297 297
321 323 324 318 321 319 319 318 319 319 319 320 319 317 317 317 316 315 314 313 313 312 311 312 312 311 307 307 307 306 305 304 303 302 301 301 300 300 300 299 297 296 294 293
320 321 319 317 320 318 316 317 321 321 320 318 319 318 316 316 314 313 312 311 311 310 310 310 309 308 305 305 305 304 303 302 301 301 300 300 299 299 298 298 295 294 292 288
319 318 317 316 315 319 320 320 317 319 320 318 319 316 315 313 312 311 309 309 310 309 308 307 308 306 305 304 304 303 302 301 301 300 299 296 294 294 293 292 291 290 289 287
317 316 315 315 316 321 319 319 317 318 318 319 318 316 314 312 310 309 308 309 309 308 307 305 305 304 303 303 302 301 299 297 295 293 291 290 290 290 289 287 288 288 286 286
315 317 319 319 316 317 319 319 318 318 318 317 317 315 313 311 309 308 307 308 307 307 303 302 302 302 302 301 299 296 293 292 291 289 288 287 287 283 282 282 282 283 283 282
317 316 315 315 314 314 316 315 314 315 314 316 317 313 312 310 308 308 307 306 305 302 300 299 295 295 296 296 295 292 290 289 288 288 286 285 284 283 281 281 281 281 281 280
311 313 316 312 313 312 312 311 312 312 313 313 315 312 310 309 307 307 305 301 298 293 290 288 288 288 289 291 290 289 288 287 286 285 285 285 285 285 283 281 281 280 280 279
308 311 311 311 311 310 309 309 310 311 310 311 311 309 308 306 304 301 296 292 289 286 285 285 284 284 286 286 286 286 285 284 284 283 283 283 283 282 282 281 281 281 280 278
306 306 307 309 308 306 303 303 304 298 295 293 293 292 291 290 288 288 287 285 283 282 282 282 282 282 283 284 284 284 283 283 282 281 281 280 280 280 280 279 279 279 279 278
303 302 302 302 300 298 297 296 294 292 290 289 288 287 286 285 284 283 282 281 281 280 280 281 282 283 284 284 283 281 280 280 280 280 279 279 279 278 278 278 277 277 277 276
295 294 295 296 295 294 292 290 288 287 287 285 284 283 283 283 282 281 281 280 280 279 278 279 279 280 280 279 279 279 279 278 278 277 277 277 277 276 276 276 276 275 275 274
289 289 290 289 288 288 287 286 285 284 283 283 282 282 281 281 280 279 279 278 278 277 276 277 277 277 277 277 277 277 277 277 276 276 276 275 275 276 275 275 274 274 273 273
287 286 286 285 284 285 285 284 284 283 282 281 280 280 279 279 278 278 277 277 277 276 276 275 275 275 275 275 275 275 275 275 275 275 275 274 274 274 273 273 273 273 272 272
285 285 284 284 283 283 282 282 282 282 282 282 281 281 280 279 278 278 277 277 276 276 275 275 274 274 274 274 274 275 274 274 273 273 273 273 273 273 272 272 271 271 270 270
284 283 282 282 282 282 282 282 282 281 281 281 280 279 278 278 277 277 276 276 276 275 274 273 273 273 273 274 273 273 273 272 272 272 272 271 271 271 270 270 269 269 268 268
284 283 282 282 281 281 281 280 280 279 279 279 279 278 278 278 278 277 277 276 275 274 273 271 271 271 272 272 272 271 271 270 270 270 270 269 269 269 269 269 268 268 267 267
282 283 283 282 282 281 281 280 280 279 278 278 277 278 277 277 275 275 274 274 273 272 271 270 270 270 271 271 270 270 269 269 269 269 268 268 267 267 267 266 266 266 266 265
279 279 278 279 279 279 278 277 278 278 277 277 276 276 275 275 275 274 273 273 273 272 271 270 270 269 269 269 268 267 268 267 267 267 267 266 266 265 265 265 265 264 264 263
277 277 276 276 275 275 275 275 274 274 276 275 274 274 274 273 273 273 272 272 271 270 269 269 269 268 268 267 267 267 266 266 266 265 265 265 264 263 263 263 262 262 262 261
273 274 274 274 274 274 272 272 272 272 273 273 272 271 271 271 271 271 270 270 269 268 268 267 267 266 266 265 265 265 265 264 264 264 263 263 262 262 262 261 261 260 260 260

GFSNGP_925_thetae_051.txt.gz
Theta_e
321 321 319 316 317 318 318 318 319 318 319 318 317 317 316 316 316 315 316 312 315 317 318 319 322 322 322 322 321 322 322 322 322 322 323 324 325 325 326 326 326 325 321 324
321 321 318 317 316 316 316 318 317 317 317 316 316 316 316 315 316 316 316 315 312 317 318 319 320 321 323 323 323 323 323 323 324 324 325 325 325 325 325 325 323 320 320 321
319 318 319 318 317 316 316 318 319 320 317 317 318 317 316 316 314 315 315 315 313 313 319 319 320 320 321 322 323 325 324 324 325 325 325 325 325 324 322 320 319 318 316 315
318 315 325 318 313 315 317 317 316 317 317 316 316 315 314 313 314 315 314 314 312 310 317 321 322 324 325 326 325 324 325 326 325 325 325 323 323 321 319 318 317 315 314 314
313 317 316 313 317 315 319 319 315 316 315 314 312 312 311 311 311 313 313 314 312 311 317 322 324 326 327 325 327 326 324 323 322 322 320 318 316 315 314 314 311 311 310 308
316 317 316 310 312 314 318 321 317 319 317 315 314 313 313 311 311 311 310 310 313 317 321 323 323 325 323 321 322 321 319 317 317 316 315 312 312 311 309 309 307 306 304 303
315 317 315 313 314 317 320 319 318 318 318 316 315 312 313 310 310 313 313 315 318 320 321 321 320 320 315 315 315 315 315 315 313 311 311 310 309 307 306 304 302 299 298 298
316 317 315 317 316 318 316 314 316 317 316 316 315 314 313 312 312 315 315 316 318 316 314 316 318 317 311 309 310 313 311 309 307 307 307 306 306 301 300 298 296 294 293 292
313 314 312 316 315 314 313 317 316 317 317 316 315 315 313 314 313 311 313 311 313 311 308 311 313 314 308 305 306 306 306 303 302 301 301 300 300 297 296 295 291 289 288 286
314 310 313 313 315 314 314 317 317 317 315 315 317 316 315 313 312 311 309 309 308 308 306 304 308 309 308 305 305 304 301 300 299 298 298 297 297 296 295 293 291 289 286 283
312 313 313 313 312 313 315 317 316 314 314 314 314 315 314 314 312 310 309 307 307 305 303 302 304 304 304 303 304 300 298 296 295 295 295 293 292 292 293 292 293 292 288 286
312 312 311 313 311 309 313 313 311 312 312 311 312 312 313 313 310 308 306 304 303 301 301 300 300 300 300 301 302 298 292 291 291 290 288 287 286 284 286 288 290 290 288 287
309 305 307 309 308 303 307 305 302 300 298 297 298 306 310 307 304 300 299 296 294 293 292 293 294 293 295 297 298 295 291 289 287 286 284 283 282 282 281 281 281 281 282 282
303 304 310 305 303 299 298 299 297 294 292 290 292 294 295 294 292 291 289 288 287 286 286 286 286 286 288 290 289 287 286 285 285 284 283 283 283 282 282 281 280 280 280 281
300 302 302 299 297 295 294 293 292 290 289 288 286 286 286 286 286 286 285 285 285 284 284 284 284 284 284 284 284 284 284 284 284 284 285 284 284 283 283 282 281 280 278 278
297 300 300 296 294 292 291 291 289 288 287 285 284 283 283 282 282 281 281 282 283 282 282 282 282 283 286 287 286 284 283 283 283 283 282 282 282 281 280 280 280 280 279 277
297 297 295 295 291 289 288 288 287 286 285 284 283 283 282 281 281 280 279 279 278 279 279 279 280 282 283 283 282 280 280 280 280 279 279 278 278 278 278 278 277 277 276 276
289 288 288 288 287 286 285 285 284 283 283 282 281 280 279 279 278 278 277 277 276 276 276 277 278 279 279 279 279 278 278 277 277 276 276 276 276 276 276 275 275 274 274 274
285 285 285 285 284 284 283 282 281 280 280 279 278 278 277 277 277 276 276 276 275 275 275 275 276 276 276 276 276 276 276 275 275 274 274 274 274 273 273 273 273 272 272 272
283 283 282 282 281 281 281 280 279 279 279 278 278 277 277 276 275 274 274 273 273 273 274 274 274 274 274 274 274 274 273 273 273 272 272 272 271 271 271 271 270 270 270 269
281 281 280 280 280 280 279 279 279 278 278 277 277 277 276 276 275 274 273 273 272 273 273 273 273 272 272 272 271 271 271 271 270 270 270 269 269 269 269 268 268 268 267 267
281 280 280 279 279 278 278 278 277 277 277 277 277 276 275 274 273 272 272 271 271 271 271 271 271 270 270 270 269 269 269 269 268 268 268 267 267 267 266 266 266 266 266 266
280 280 279 278 278 277 277 276 275 275 275 274 274 273 273 273 273 272 271 270 270 270 269 269 268 268 268 268 267 268 267 267 267 266 266 266 265 265 265 264 264 264 264 264
278 278 277 277 277 277 276 276 275 274 274 273 273 272 272 271 270 270 270 269 269 269 268 268 267 267 267 266 266 266 266 265 265 265 264 264 264 263 263 262 262 262 262 261
275 275 275 275 275 275 275 274 273 272 271 271 271 271 271 271 270 269 269 268 268 268 267 266 266 265 265 265 265 265 264 264 264 263 263 263 262 262 261 261 260 260 260 260
274 273 272 272 272 272 271 271 271 270 269 268 269 270 270 269 269 268 267 267 266 266 265 265 264 264 264 263 263 263 263 263 262 262 261 261 261 261 260 260 260 259 259 258
271 271 271 270 270 271 271 270 269 268 269 269 268 267 268 267 267 267 266 266 265 265 264 263 263 263 262 262 262 262 262 262 261 261 261 260 260 259 259 259 258 258 258 257

GFSNGP_925_thetae_054.txt.gz
Theta_e
321 320 320 319 318 316 316 315 317 316 317 317 317 316 315 315 314 314 313 312 311 314 316 319 319 320 320 320 319 318 317 316 315 315 316 317 318 318 319 320 321 321 322 321
318 319 315 317 318 315 315 314 316 316 316 314 315 314 314 314 314 313 313 313 312 311 315 314 319 320 320 320 320 320 319 318 317 317 316 317 318 319 320 321 322 322 322 321
316 315 316 317 314 311 315 315 316 317 315 315 315 316 315 315 314 314 313 313 312 311 312 316 317 319 320 320 320 320 320 320 320 320 319 319 320 321 322 322 322 322 322 320
315 312 317 313 312 315 314 314 310 311 317 315 315 315 314 313 313 313 312 312 312 311 310 314 317 319 320 321 321 321 320 320 321 321 322 322 322 322 322 322 320 319 320 317
311 313 313 312 315 317 315 313 309 314 319 317 314 310 310 309 309 310 310 310 310 311 311 313 316 318 319 320 320 321 322 322 322 322 323 323 322 321 319 318 316 314 312 311
314 312 312 307 309 314 314 314 316 316 317 317 315 313 314 311 310 309 308 308 309 310 312 314 317 320 321 322 323 322 322 322 322 323 323 320 319 315 313 311 308 306 305 305
314 315 311 310 313 316 317 308 313 315 316 316 316 313 314 313 312 310 309 310 312 314 316 318 319 321 320 320 320 318 319 319 319 319 317 315 311 308 306 304 302 300 299 298
314 317 312 313 315 316 313 312 314 313 313 315 315 314 313 312 311 312 312 313 315 314 313 314 317 319 313 310 311 314 314 312 311 310 309 306 305 301 300 298 294 292 293 292
310 310 309 315 313 312 313 313 314 313 313 314 314 314 314 313 312 311 310 309 310 308 308 311 314 316 308 305 311 309 307 303 302 302 301 300 300 297 295 294 291 290 288 286
310 310 310 312 311 309 309 312 312 313 313 314 314 312 311 311 311 309 307 308 308 307 304 303 307 308 305 305 306 306 301 299 298 298 297 297 296 295 294 292 290 288 287 284
309 311 310 311 310 306 308 309 311 312 312 307 305 306 308 310 309 308 307 305 304 302 301 300 301 302 303 304 305 300 298 296 295 295 294 292 291 291 291 291 293 292 290 287
306 310 309 309 307 301 305 303 301 300 299 297 297 302 306 302 300 301 300 299 297 296 294 292 293 295 297 299 301 298 292 291 290 290 289 288 287 286 287 289 291 290 287 286
307 304 305 305 301 298 298 298 297 295 293 292 292 292 292 290 290 289 289 289 289 288 287 287 287 287 290 292 293 291 287 286 285 285 284 283 283 282 281 281 282 283 284 284
302 303 308 301 300 295 294 294 292 290 288 287 287 287 286 287 286 286 286 286 286 286 285 285 285 285 285 287 287 285 285 284 284 283 283 283 283 282 282 281 280 280 280 280
297 298 301 298 295 292 291 291 290 287 286 285 284 284 284 284 283 283 283 283 283 282 282 283 283 283 285 285 285 284 284 283 283 283 284 283 283 283 282 281 280 279 278 278
295 298 298 294 292 290 289 289 288 287 285 284 283 283 282 281 280 279 279 279 279 279 279 279 280 280 282 283 283 282 282 282 282 281 281 281 281 280 280 280 280 279 277 276
293 295 293 291 288 287 286 286 285 284 284 283 282 281 280 279 278 278 277 277 277 277 277 277 277 279 279 280 279 279 278 278 279 278 278 277 277 277 277 277 276 275 275 275
287 287 287 287 286 284 284 283 282 281 281 279 278 278 277 277 277 276 276 275 275 275 276 276 277 277 277 278 277 277 276 276 276 275 275 275 275 275 274 274 274 273 273 273
284 284 284 283 283 282 281 281 279 278 278 277 276 275 275 274 274 274 274 274 274 274 274 274 275 275 275 275 275 275 274 274 273 273 273 273 272 272 272 271 271 271 270 270
282 281 281 281 280 280 279 278 278 278 277 277 276 275 275 274 274 273 272 272 272 273 273 273 273 273 273 273 273 272 272 272 271 271 271 270 270 269 269 269 268 268 268 268
280 280 279 279 278 278 278 278 277 277 276 275 274 273 273 272 273 272 272 272 271 271 271 271 270 270 270 270 270 270 270 269 269 268 268 268 267 267 267 266 266 266 266 266
279 279 278 278 277 276 276 276 275 275 275 275 274 273 272 271 271 270 270 270 269 269 269 268 268 268 268 268 268 268 268 267 267 266 266 266 265 265 265 264 264 264 264 264
279 278 277 277 276 275 275 274 274 273 273 272 272 271 271 271 270 270 269 268 268 268 267 267 267 267 266 266 266 266 266 265 265 265 264 264 264 263 263 263 262 262 262 262
277 277 277 276 276 275 274 273 273 272 272 272 271 271 270 269 268 268 268 268 267 267 266 266 266 265 265 265 265 265 264 264 264 263 263 263 262 262 262 261 261 260 260 260
275 275 275 275 275 274 273 272 271 270 270 269 268 268 269 269 268 267 267 267 266 265 265 264 264 264 264 264 264 263 263 263 262 262 261 261 261 261 260 260 260 259 259 259
273 272 271 271 271 271 271 270 269 269 268 267 267 268 268 268 267 267 266 265 265 264 264 263 263 263 262 262 262 262 262 262 261 261 261 260 260 260 259 259 259 258 258 258
270 270 270 269 270 270 269 269 268 267 268 267 266 266 267 266 266 265 265 264 264 263 263 262 262 262 262 262 262 261 261 261 261 260 260 259 259 259 258 258 258 258 258 257

GFSNGP_925_thetae_057.txt.gz
Theta_e
321 320 320 318 318 318 318 317 318 318 318 318 318 318 319 319 317 317 318 317 316 316 320 321 320 321 320 320 319 317 316 316 316 315 315 315 315 315 315 316 316 317 318 319
318 317 317 316 316 313 316 316 316 317 317 315 316 316 316 318 317 317 318 317 317 316 315 318 320 321 321 321 320 319 318 317 317 317 316 316 316 316 316 317 318 318 319 319
314 316 315 314 316 314 316 315 316 316 313 312 319 318 317 317 318 316 317 316 316 316 316 317 318 320 321 321 321 320 320 319 318 317 316 316 317 317 317 318 318 319 320 320
316 314 313 312 313 313 317 316 313 311 310 318 319 318 318 315 315 316 315 315 315 316 316 315 315 317 319 320 321 321 321 320 319 319 318 318 317 317 318 319 319 320 320 320
317 316 313 311 311 316 317 312 314 317 318 318 318 317 319 315 316 316 316 313 312 312 313 313 313 315 318 319 320 320 321 321 320 320 320 320 319 319 320 320 321 321 321 320
314 316 315 310 309 314 313 312 315 316 317 317 317 322 320 317 316 315 314 314 312 311 310 311 312 313 317 319 320 321 321 321 320 320 320 320 320 321 321 319 317 315 311 310
315 316 315 311 311 313 313 312 313 315 315 315 317 317 316 315 315 314 313 313 315 316 315 315 316 318 319 320 320 316 317 319 320 321 321 320 318 315 313 310 306 303 301 299
315 316 315 310 316 316 315 314 313 314 313 314 315 315 315 314 313 313 312 312 312 313 312 313 316 319 317 311 312 316 317 315 313 313 312 310 310 306 304 301 297 293 293 292
313 314 310 313 314 310 310 312 313 314 314 314 316 315 313 312 311 311 310 310 309 309 308 306 308 312 309 306 309 309 306 303 302 302 302 301 301 297 295 293 291 290 288 287
312 311 311 312 310 307 307 307 305 307 304 303 303 304 306 308 307 307 306 306 305 305 304 302 302 302 303 304 306 305 300 297 297 296 295 295 294 293 293 292 290 289 287 285
311 310 311 310 306 304 305 303 302 302 299 298 297 298 301 298 297 297 296 296 297 297 297 296 296 296 298 298 299 296 294 292 291 290 290 289 289 290 290 291 292 289 287 286
311 309 308 309 303 300 302 300 298 296 296 294 293 293 293 292 291 291 290 290 291 290 290 289 290 291 292 293 293 293 291 290 289 288 287 286 285 284 284 288 289 289 286 286
306 304 305 306 299 297 297 296 294 291 290 290 290 290 290 289 288 287 287 287 287 287 287 287 286 287 286 289 289 288 288 287 285 285 284 284 283 283 282 281 281 282 282 281
300 302 306 299 299 294 293 292 290 288 287 286 286 286 286 286 285 285 284 284 283 283 283 283 284 284 285 285 285 285 285 284 284 284 284 284 283 284 283 282 281 280 280 280
296 297 300 296 293 292 291 290 289 287 286 285 284 284 283 283 282 281 282 282 281 281 281 281 281 281 282 283 282 282 283 283 283 282 282 283 283 283 282 281 280 279 278 278
293 295 295 292 290 289 288 288 287 286 285 283 282 281 280 280 279 278 278 278 278 278 278 278 278 279 281 282 281 280 280 281 280 280 280 281 281 281 281 280 279 278 277 276
292 293 292 289 287 286 286 285 284 283 282 281 281 280 279 278 278 277 277 276 276 276 276 276 276 278 279 279 279 278 278 278 278 277 278 278 278 278 278 277 277 276 275 274
287 286 286 286 285 284 283 282 281 280 279 278 277 276 276 276 276 275 275 275 274 274 274 274 275 276 276 276 276 276 276 276 276 275 275 275 275 275 275 275 274 274 272 271
284 284 283 282 282 281 280 279 278 277 277 276 275 274 274 273 273 273 273 273 273 273 272 272 273 273 273 273 274 274 274 274 274 273 273 272 272 272 271 271 271 270 270 270
281 280 280 280 279 279 278 278 277 276 275 275 274 274 274 273 273 272 271 270 270 270 270 270 270 270 270 271 271 271 271 271 270 269 269 269 269 268 268 267 268 267 267 267
279 279 278 277 277 276 276 276 275 275 274 273 273 272 271 271 271 271 271 270 269 268 268 268 268 268 268 268 268 268 268 267 267 266 266 266 266 266 266 265 265 265 265 264
278 278 277 276 276 275 275 274 274 274 273 273 272 272 271 271 269 268 268 268 267 267 267 266 266 267 267 267 266 266 266 265 265 265 265 264 264 264 263 263 263 262 262 262
278 277 276 276 275 274 274 273 272 272 271 271 270 270 270 270 269 269 268 267 266 266 265 265 265 265 265 265 265 265 264 264 263 263 263 263 262 262 262 261 261 261 260 260
277 277 276 275 275 274 274 273 273 272 271 270 269 269 269 269 268 267 266 266 266 265 265 264 264 264 264 264 264 264 263 263 262 262 262 262 261 261 260 260 260 259 259 259
275 275 275 275 274 273 272 271 271 270 269 268 268 267 267 267 267 265 265 265 265 264 264 263 263 263 263 263 263 263 262 262 261 261 261 261 260 260 260 259 259 259 258 258
273 272 272 271 271 271 270 270 269 269 268 267 265 267 267 266 266 265 265 264 264 263 263 262 262 262 262 262 262 262 261 261 261 260 260 260 259 259 259 258 258 258 258 257
270 270 270 269 268 268 268 268 268 266 266 266 265 265 266 265 265 264 264 263 263 262 262 262 261 261 261 261 261 261 260 260 260 260 259 259 258 258 258 258 257 257 257 257

GFSNGP_925_thetae_060.txt.gz
Theta_e
319 318 319 320 320 319 321 320 321 319 319 318 319 319 320 320 320 320 321 321 322 322 323 324 325 326 325 324 324 323 322 321 321 321 320 320 320 320 319 319 319 319 319 319
315 315 317 316 316 317 317 320 320 320 320 318 316 317 320 321 321 320 319 320 321 322 321 321 323 324 325 325 324 323 323 322 322 321 321 320 320 319 319 319 318 318 319 319
312 314 314 314 314 315 318 319 320 321 319 315 314 318 321 322 320 320 320 319 319 319 319 320 320 321 324 325 325 324 323 322 322 321 321 321 320 320 320 319 319 319 319 320
314 316 314 313 316 316 319 318 318 314 314 317 319 320 320 319 321 321 320 320 320 320 320 317 318 318 321 323 325 325 324 324 323 322 322 321 321 321 321 320 320 321 321 321
316 314 311 311 313 315 318 315 315 315 315 316 317 320 320 319 318 319 319 319 319 318 318 317 317 316 317 319 322 324 325 325 324 323 323 322 321 321 321 321 322 322 322 322
317 314 315 311 314 314 314 312 314 314 314 315 316 322 320 318 317 316 317 317 318 319 320 320 318 317 316 319 320 322 323 324 324 324 323 323 323 322 322 322 322 320 319 318
315 316 314 313 313 315 313 316 315 315 315 316 317 317 317 318 316 315 315 315 316 318 318 316 317 320 320 320 321 322 323 323 323 323 323 323 323 318 314 316 312 307 305 302
313 315 315 313 314 314 318 315 316 317 317 317 316 317 316 314 315 313 313 313 313 313 312 308 309 318 321 316 315 317 315 313 313 314 315 313 313 309 307 305 300 295 294 292
312 313 316 315 316 313 313 314 312 313 312 311 313 312 311 312 308 307 307 306 307 306 303 301 301 305 306 304 304 303 302 300 300 300 301 300 299 296 295 294 292 289 288 287
313 311 313 315 313 312 311 310 308 307 307 306 308 307 307 305 302 302 298 299 299 299 295 294 294 295 298 299 300 298 296 294 293 292 292 292 292 292 292 291 290 288 287 285
310 310 313 312 310 309 309 308 306 304 303 301 302 303 303 302 299 298 295 294 293 293 291 290 290 290 292 295 296 293 292 291 289 288 287 286 286 287 288 289 290 287 285 284
311 312 311 312 307 304 307 305 302 300 300 299 296 297 296 295 294 292 291 290 290 289 288 288 288 288 288 290 292 291 290 289 289 288 287 285 284 283 283 286 288 287 286 285
310 308 308 308 304 301 302 298 296 296 294 295 293 293 292 290 288 287 286 286 286 286 285 285 284 284 285 286 289 287 287 287 286 285 285 284 284 283 283 282 281 282 282 282
303 303 307 304 304 298 297 295 292 292 291 289 289 288 287 286 284 284 283 283 282 282 282 282 282 282 282 284 284 284 284 284 285 285 285 285 285 285 285 283 282 281 280 280
297 297 298 296 294 292 291 292 290 289 287 286 284 283 282 282 281 280 281 281 280 280 280 280 280 280 281 281 282 282 283 283 283 284 284 284 284 284 283 282 281 280 279 278
295 297 293 291 290 289 289 288 287 285 284 283 282 281 280 280 279 279 278 277 278 278 278 278 278 278 280 281 281 281 281 280 281 282 282 283 283 283 282 281 281 280 279 279
295 295 293 290 288 287 286 285 285 283 282 282 282 281 280 279 278 278 277 276 276 276 276 276 277 277 278 279 281 281 280 280 279 279 279 280 280 280 280 279 278 276 275 275
288 288 288 288 287 286 284 283 282 281 280 278 277 277 277 277 277 276 276 276 275 274 274 274 274 275 275 277 278 279 279 278 278 277 277 277 277 277 277 276 276 275 274 273
286 286 285 284 283 282 281 280 278 277 277 276 276 276 275 275 274 274 274 274 274 274 272 272 273 273 273 274 276 276 276 276 275 275 275 274 274 274 274 274 273 273 272 272
282 282 281 281 280 279 278 277 277 276 276 276 275 275 275 274 273 273 272 271 270 270 270 271 271 271 271 271 272 272 273 273 272 271 271 272 272 272 271 270 270 271 270 270
280 279 279 278 278 277 277 276 276 275 274 274 274 273 272 272 272 273 273 271 269 269 269 268 268 269 269 270 270 270 270 270 270 270 270 270 269 269 269 269 268 268 268 268
279 278 277 277 276 276 275 275 275 274 274 273 273 273 272 272 271 270 269 269 268 268 268 267 267 266 267 268 268 268 268 268 268 268 268 268 268 268 267 267 267 266 266 266
278 278 277 276 276 275 275 274 274 273 273 272 272 272 272 272 272 272 270 267 267 266 267 265 265 265 266 267 267 267 266 266 266 266 266 266 266 266 265 265 265 264 264 264
278 277 277 277 277 276 276 275 274 272 271 271 270 271 272 271 270 269 267 265 265 265 264 263 263 264 265 266 266 266 266 266 265 265 265 264 264 264 264 263 263 263 262 262
277 277 277 277 276 275 274 273 273 272 271 271 270 270 269 269 269 267 267 266 264 266 265 263 263 263 265 265 264 264 265 264 263 264 264 263 263 263 263 262 261 261 260 260
276 275 275 275 275 274 274 274 273 272 272 270 269 269 268 267 267 267 265 265 264 264 264 264 263 264 264 264 264 263 263 263 263 263 261 262 261 262 261 260 259 259 259 258
274 274 274 273 272 272 272 272 272 271 270 270 269 268 267 267 266 266 265 265 265 264 264 263 263 262 262 262 263 263 262 262 261 260 261 261 260 260 259 258 258 258 257 257

GFSNGP_925_thetae_063.txt.gz
Theta_e
318 319 319 316 317 317 319 320 322 322 321 320 319 320 319 320 321 322 322 322 323 323 324 325 327 328 328 328 328 327 325 324 324 325 325 325 325 325 324 324 324 324 324 324
320 318 319 320 319 319 319 319 320 320 320 320 320 317 318 321 321 322 323 323 322 322 322 322 322 324 327 328 328 327 327 326 325 325 325 325 325 325 325 324 324 324 323 323
320 315 315 318 318 318 318 318 319 320 320 320 317 317 318 319 322 322 322 322 322 322 322 322 321 320 322 325 327 327 327 327 326 326 325 325 325 324 324 324 324 324 323 323
317 315 319 315 315 316 317 319 319 318 317 317 317 318 317 321 320 321 320 320 321 322 322 322 322 321 320 320 323 327 327 327 326 326 326 325 325 324 324 324 324 324 323 322
316 315 314 312 312 316 319 318 317 316 315 315 316 316 319 321 319 318 318 318 319 319 321 322 322 322 321 319 319 322 326 327 327 326 325 325 325 325 325 324 324 324 324 323
316 315 316 313 314 315 317 319 315 315 315 315 316 317 321 319 318 317 317 316 316 317 317 312 310 314 321 322 321 320 321 324 326 326 326 325 325 326 325 325 325 324 323 316
314 315 313 313 313 314 315 318 316 316 317 317 317 318 318 318 317 316 315 313 312 314 310 302 300 303 319 321 321 322 324 324 324 325 326 326 326 325 324 320 314 310 305 301
313 313 314 314 312 316 317 317 315 316 316 317 317 317 316 315 313 311 310 308 308 309 304 297 296 296 301 303 305 307 310 307 306 307 311 313 311 311 312 310 302 295 294 291
311 311 316 317 317 315 315 315 314 314 313 312 314 313 313 312 309 308 306 305 302 302 299 295 292 293 293 296 298 298 297 296 295 297 297 299 299 297 296 295 293 290 289 287
312 315 315 316 315 313 313 313 311 311 310 309 309 310 309 308 307 305 303 301 298 297 294 292 291 290 290 292 294 293 292 291 290 289 289 290 291 292 292 290 289 288 286 285
313 314 316 314 312 311 311 310 308 307 306 305 304 305 303 303 300 298 297 295 294 293 291 289 288 288 288 292 291 291 290 289 288 287 286 285 285 285 286 287 288 286 285 284
313 315 315 312 310 308 309 307 304 304 303 302 300 300 298 295 291 290 289 288 288 288 287 285 286 285 285 288 289 288 287 287 286 286 285 284 284 283 283 283 284 284 283 283
312 310 310 309 307 304 305 301 300 299 298 298 296 295 292 290 287 286 285 284 284 283 283 283 283 283 283 285 286 285 286 286 285 285 285 284 284 283 282 282 282 282 282 282
304 305 309 303 299 297 299 298 295 294 291 291 290 288 286 284 283 282 282 282 282 282 282 282 282 283 283 283 284 285 285 286 286 286 285 285 285 284 283 282 281 280 280 280
300 300 301 297 295 293 293 293 292 290 289 287 286 286 285 284 283 282 281 282 282 281 281 281 281 281 283 283 282 282 284 284 285 285 284 284 284 283 282 282 281 280 280 279
298 297 296 294 292 290 290 289 289 287 286 284 283 283 283 282 281 280 279 279 279 279 279 278 278 279 281 282 282 282 281 281 282 282 282 283 283 283 282 280 279 278 278 280
297 296 295 294 292 290 289 288 287 286 285 284 284 283 282 281 280 279 278 277 276 276 276 276 277 276 279 280 281 281 280 280 280 280 280 281 281 280 279 278 277 276 275 275
290 290 290 290 289 287 286 285 284 283 281 280 279 279 278 278 278 277 277 276 276 274 274 274 274 275 275 278 279 279 279 279 278 278 278 278 278 278 278 277 277 276 275 274
287 287 286 286 285 284 282 281 280 279 278 278 277 276 275 275 275 274 274 274 274 273 272 273 273 274 274 274 276 276 276 276 276 276 276 276 275 275 275 275 275 274 274 273
284 283 282 282 281 280 279 278 278 277 277 277 276 276 275 275 275 274 273 271 271 271 270 271 272 272 273 273 274 274 274 274 274 273 273 273 273 273 273 272 272 272 272 271
282 281 280 279 279 278 277 277 276 276 275 275 274 273 273 272 271 274 275 273 270 270 270 269 269 271 271 272 272 272 272 272 272 272 272 272 272 271 271 271 271 270 270 270
280 280 279 278 278 277 277 277 276 276 275 275 275 275 275 274 272 271 270 271 270 269 269 268 267 268 269 270 271 270 270 270 270 270 270 270 270 270 270 269 269 269 268 268
280 279 278 278 278 277 276 276 275 275 274 274 273 273 273 272 272 273 271 268 268 267 268 266 265 267 269 270 270 270 269 269 269 269 268 269 268 268 268 267 267 267 267 266
280 279 279 279 278 278 277 276 275 273 273 272 271 272 274 273 272 271 269 267 267 267 265 264 265 266 268 269 268 268 268 268 268 268 268 267 267 267 267 266 265 265 265 265
280 279 279 279 278 277 276 275 274 274 274 273 272 272 271 271 271 270 269 268 266 268 268 265 265 266 267 267 267 267 267 267 265 266 266 266 266 265 265 265 264 263 263 263
279 279 278 278 278 277 277 276 276 275 275 274 272 271 271 270 269 270 268 267 267 267 267 267 266 266 267 266 266 266 266 266 265 265 264 265 265 264 264 263 262 262 262 261
277 277 277 276 275 275 275 275 275 274 274 273 272 271 270 270 268 269 268 268 268 268 268 267 267 265 265 264 266 265 265 265 264 263 263 263 263 263 262 261 261 260 260 260

GFSNGP_925_thetae_069.txt.gz
Theta_e
317 314 317 320 319 320 322 323 329 327 327 325 325 324 321 320 320 321 322 322 321 322 321 319 319 318 319 321 325 325 324 324 324 323 322 321 321 321 323 322 322 321 320 319
315 317 318 321 321 318 320 323 325 325 325 323 324 323 322 320 320 319 320 319 320 319 316 314 312 312 313 315 318 322 325 324 325 324 324 323 322 322 322 324 323 323 322 322
316 317 317 320 319 319 321 323 322 325 324 323 323 322 320 318 318 318 317 318 317 313 310 307 305 306 308 314 313 317 315 315 322 324 325 325 324 323 323 323 324 324 324 324
315 316 321 318 316 318 319 321 320 322 323 322 323 321 318 316 315 314 313 314 311 307 304 301 300 301 305 306 306 307 307 308 309 310 312 320 326 326 326 325 325 325 325 325
313 317 318 316 315 314 321 320 318 319 318 322 321 318 315 312 311 309 308 309 305 301 299 297 297 298 300 300 300 301 301 303 304 302 304 307 315 325 326 325 325 325 325 324
312 315 321 316 315 314 319 322 317 319 320 321 319 319 315 310 309 306 305 304 301 297 295 294 294 296 297 297 297 297 296 297 297 296 298 299 303 307 322 325 325 324 322 318
310 313 315 314 314 314 320 321 317 317 317 315 316 313 310 307 305 302 300 300 298 295 293 291 291 293 294 294 294 293 292 292 291 291 293 293 297 298 302 310 315 311 307 302
311 311 313 314 315 319 317 314 314 313 314 313 312 309 305 302 298 297 295 294 294 292 290 288 288 289 291 291 291 290 289 288 287 288 288 290 291 292 294 294 292 290 289 288
310 309 314 315 316 315 313 312 310 309 308 308 307 302 299 297 294 292 291 290 290 289 288 287 286 287 288 289 289 288 287 286 286 285 286 287 287 287 289 289 288 287 286 286
312 308 314 314 312 310 308 307 305 304 304 303 302 298 295 293 291 290 288 288 287 287 286 286 285 286 286 288 288 287 286 285 285 284 284 285 285 285 285 285 285 285 285 285
313 314 312 311 308 306 305 305 303 300 300 300 297 294 291 289 288 287 286 286 285 285 285 285 285 285 285 287 287 286 286 285 284 283 283 283 283 283 283 283 284 284 284 284
313 309 307 306 304 303 302 300 299 298 295 294 292 289 287 286 285 284 284 284 284 283 283 284 284 284 284 285 286 286 286 285 285 284 282 282 281 281 282 282 282 283 283 283
308 304 303 301 301 299 297 295 294 293 292 290 288 286 285 285 284 283 283 282 281 281 280 280 281 283 283 283 283 284 284 284 283 282 281 281 281 281 280 280 280 280 281 282
302 301 300 299 298 297 295 292 290 289 289 288 286 285 284 284 283 282 280 279 278 278 278 278 279 280 282 282 282 282 282 282 283 283 282 281 281 280 280 280 279 279 278 278
298 297 297 295 293 292 291 289 288 286 286 285 284 282 281 280 278 278 278 277 276 276 276 277 277 279 281 281 280 280 280 280 280 280 279 279 278 278 277 277 277 278 277 276
296 294 293 292 291 289 288 287 285 284 283 282 281 280 278 277 276 276 275 275 275 275 274 275 276 277 279 279 279 279 279 279 278 278 279 278 277 276 276 275 275 275 275 275
294 293 293 290 289 288 287 286 285 284 281 282 281 280 279 278 277 275 274 273 273 273 274 274 274 276 277 277 277 278 277 277 276 276 276 276 276 276 276 275 273 272 272 272
288 288 289 288 286 284 283 282 280 279 278 277 276 275 274 274 274 274 273 272 272 272 273 273 273 274 275 275 275 275 275 275 275 274 273 274 273 274 273 273 272 272 271 270
284 284 283 283 281 280 279 278 277 277 276 275 274 273 273 273 272 272 272 271 270 270 271 272 272 273 273 274 274 274 274 273 273 273 273 272 272 272 272 271 271 271 270 270
281 280 280 279 279 278 278 277 276 276 275 275 274 273 272 273 272 271 270 270 270 269 269 271 271 271 272 272 272 272 272 272 272 272 271 271 271 270 270 270 270 269 269 268
278 278 277 276 276 276 276 275 275 274 273 273 273 272 271 272 273 272 270 269 269 269 268 269 270 271 271 271 271 271 270 270 270 270 270 270 269 269 269 268 268 268 267 267
278 278 277 277 276 276 276 275 275 275 274 274 273 272 272 270 270 269 269 268 268 267 268 269 269 270 270 270 270 269 269 269 268 268 268 268 268 267 267 267 266 266 266 265
278 278 277 276 276 275 275 274 274 274 273 273 273 272 272 271 271 269 268 268 268 267 267 268 269 269 268 269 268 268 268 268 267 267 267 267 267 267 266 266 265 265 264 264
278 278 277 277 276 276 275 274 274 273 273 273 272 272 273 271 269 269 268 268 268 268 267 267 268 268 267 267 267 267 267 266 266 266 266 266 266 265 265 265 264 263 263 263
280 280 279 279 278 277 276 275 275 274 274 273 273 272 271 270 270 269 269 268 268 268 268 267 267 267 266 266 266 266 266 266 265 265 265 264 264 264 264 263 263 262 262 261
280 278 278 277 277 277 277 276 276 275 274 273 272 272 271 270 270 270 269 269 269 269 268 268 267 267 266 266 266 266 265 265 265 265 264 263 264 264 263 263 262 262 261 261
278 278 277 276 275 275 275 275 274 272 273 273 272 272 271 270 270 270 270 269 269 268 268 268 268 267 267 266 266 266 265 265 265 264 264 263 263 263 263 262 262 261 260 260

GFSNGP_925_thetae_072.txt.gz
Theta_e
316 315 314 319 320 321 324 321 325 324 326 326 326 326 325 320 319 321 320 316 314 314 312 310 310 311 315 315 316 320 323 323 322 321 320 321 321 321 321 321 320 320 320 320
314 315 316 316 317 321 320 322 322 323 324 323 325 323 322 319 318 319 317 314 310 307 305 304 304 307 308 308 308 310 311 316 319 322 322 321 321 321 321 321 321 321 320 320
313 313 314 318 318 319 320 320 322 326 324 323 324 322 320 316 316 315 312 308 305 303 301 299 300 302 302 303 303 303 305 306 305 307 312 318 321 321 320 320 321 321 321 321
312 313 317 315 311 313 318 321 322 321 322 323 318 315 312 310 311 310 306 303 300 298 296 296 297 298 299 299 299 299 300 300 300 301 302 304 308 313 321 321 321 321 322 322
310 312 311 309 315 318 321 322 320 321 323 319 314 311 309 306 306 305 302 298 296 294 293 293 293 296 297 295 295 294 294 295 295 296 298 299 300 301 304 311 321 322 322 323
309 311 313 315 314 315 318 323 318 321 321 318 316 314 308 303 300 300 297 295 293 292 291 290 291 294 294 293 292 291 290 290 291 292 294 293 295 296 298 301 309 317 305 301
308 309 309 311 314 315 320 321 319 320 320 316 313 308 302 298 296 295 294 293 292 290 289 288 289 291 292 291 290 289 287 287 287 288 289 289 290 292 293 294 292 291 290 288
307 309 309 309 316 315 318 314 315 314 311 307 304 301 297 295 293 292 291 291 290 289 288 287 288 289 290 289 288 287 285 285 285 285 286 286 287 288 289 289 288 287 287 285
307 307 312 312 315 313 311 309 309 308 306 303 300 297 294 292 290 289 288 288 288 288 287 286 286 287 288 288 287 286 285 284 284 283 284 284 285 285 286 287 287 286 286 285
311 309 311 309 308 306 305 304 304 302 301 298 296 293 291 290 289 288 287 286 286 286 286 285 285 285 287 287 286 285 284 284 283 283 283 283 284 284 284 285 285 285 285 285
312 309 306 305 304 303 302 299 298 297 295 294 292 290 289 288 287 286 285 284 284 284 284 284 284 283 284 285 285 285 285 284 283 282 281 282 282 282 283 283 283 283 284 284
310 304 306 305 301 299 297 297 295 293 290 289 288 287 286 285 284 283 282 281 281 281 281 282 282 281 282 283 284 283 283 282 281 281 281 280 280 280 280 281 281 282 282 282
303 300 298 298 297 295 293 292 291 290 288 287 285 285 284 284 282 281 279 279 279 279 279 279 279 281 281 282 282 282 282 282 281 280 280 279 279 279 279 279 278 278 279 279
301 299 297 296 296 292 290 289 288 287 286 285 284 283 282 281 279 278 278 277 277 277 277 278 279 279 280 281 281 281 280 279 279 279 278 278 278 277 277 278 276 275 275 276
296 295 294 292 290 289 288 287 286 285 284 282 281 280 279 278 278 277 276 276 276 275 275 276 277 278 279 279 279 279 279 278 278 278 277 277 276 276 275 275 275 274 274 273
294 293 292 291 289 288 286 286 284 282 280 279 277 277 276 276 275 274 274 274 274 273 274 275 276 276 278 278 277 277 278 277 277 277 276 276 275 274 273 273 272 272 271 271
295 293 291 290 289 288 287 285 284 283 281 280 279 278 277 276 274 273 272 272 272 272 273 273 275 275 276 276 276 276 275 275 275 275 275 274 274 274 273 272 271 270 270 270
287 288 288 287 285 284 282 281 280 279 278 276 275 275 274 273 272 271 271 272 272 272 272 272 273 274 274 274 274 274 274 273 273 273 273 273 272 272 271 271 270 269 269 268
283 283 283 282 281 280 279 278 276 275 275 274 274 272 272 272 271 271 270 270 270 270 271 272 272 272 273 273 273 273 272 272 272 271 271 271 271 271 270 269 269 269 268 268
279 279 278 278 277 277 276 275 275 274 274 273 272 272 271 271 270 270 269 269 268 269 270 271 271 271 271 271 271 271 271 271 270 270 270 270 269 269 268 268 268 268 267 266
276 276 275 275 274 275 275 275 274 273 273 273 272 271 271 270 270 269 269 268 267 268 269 270 270 270 270 270 270 269 269 269 269 269 269 268 268 268 267 267 266 266 266 266
275 275 274 274 274 274 274 274 274 273 272 271 271 270 270 269 269 268 268 267 267 268 269 269 269 269 269 269 269 269 268 268 268 267 267 267 267 266 266 266 265 265 264 264
276 275 275 275 274 274 274 274 273 273 273 273 272 272 271 271 269 268 267 268 267 267 268 268 268 268 268 268 267 267 266 267 266 266 266 266 266 265 265 265 264 264 263 263
277 276 276 275 275 274 274 273 273 273 272 273 272 271 271 270 269 268 268 268 268 267 267 267 267 267 267 266 266 266 266 266 265 265 265 265 265 264 264 264 263 263 262 262
278 277 277 277 277 276 275 274 273 273 272 272 271 271 271 270 270 268 268 268 268 268 267 267 267 266 266 266 266 265 265 265 265 264 264 264 264 263 263 263 262 262 262 261
279 277 277 276 276 276 276 275 274 274 273 272 271 271 270 270 269 269 269 269 268 268 268 267 267 267 266 266 266 265 265 265 265 264 264 263 263 263 263 262 262 262 261 260
277 276 275 274 274 275 275 274 273 273 273 272 271 271 270 270 269 269 269 268 268 268 268 267 267 267 266 266 266 265 265 265 264 264 264 263 263 263 262 262 262 261 261 260

GFSNGP_925_thetae_075.txt.gz
Theta_e
314 313 313 314 315 317 320 321 325 321 322 323 323 322 321 320 317 313 310 310 309 307 306 306 308 307 308 309 309 314 321 322 321 321 321 320 320 320 320 320 320 320 320 319
312 312 313 311 311 313 315 320 321 321 321 322 323 323 322 319 315 310 307 305 303 303 302 302 301 302 302 302 303 306 307 307 309 312 317 320 320 320 320 320 320 320 320 320
309 309 309 312 314 310 314 319 319 320 321 322 324 323 321 316 311 307 304 301 300 298 297 297 298 299 298 298 299 300 300 300 301 303 305 307 310 314 318 319 320 320 320 320
309 309 310 309 305 315 316 318 318 320 321 322 315 311 310 311 307 303 300 298 297 295 294 294 296 296 295 294 293 294 294 295 296 297 299 300 301 302 305 308 311 317 320 320
307 308 306 304 314 317 320 323 321 321 319 311 308 307 305 304 301 299 297 295 293 292 292 292 294 294 293 291 291 290 290 291 292 293 294 294 295 295 296 299 300 302 305 305
307 308 308 310 308 313 314 322 318 320 317 313 314 313 306 300 298 296 294 292 291 290 290 290 291 292 291 289 288 288 287 287 289 289 290 290 292 291 292 291 289 291 291 290
306 307 306 306 306 310 314 322 318 319 315 316 313 308 299 296 294 293 293 291 290 289 288 288 290 290 289 288 287 286 286 286 286 286 287 287 288 289 289 289 289 288 288 287
305 308 308 310 314 313 312 314 311 311 308 303 300 298 295 293 292 291 290 289 289 288 287 287 288 289 288 287 285 285 284 284 284 284 285 286 286 287 287 287 287 286 286 285
306 306 309 307 309 308 310 309 307 306 303 300 298 296 293 291 289 289 288 287 287 287 287 286 286 287 287 286 285 284 283 283 283 283 284 284 284 284 285 285 286 286 285 285
310 309 307 305 302 301 303 305 304 303 300 297 295 292 290 289 288 287 287 286 286 286 285 285 284 285 286 286 285 284 283 282 282 282 282 282 283 283 284 284 284 284 284 284
308 307 305 302 301 299 297 296 295 294 293 292 291 290 289 287 286 285 283 283 283 284 283 282 282 283 283 284 283 283 282 281 281 281 281 281 281 281 281 282 282 282 282 282
308 307 305 301 298 296 295 294 292 291 289 288 287 287 286 284 283 282 281 281 281 281 281 281 280 281 282 283 282 282 281 280 280 279 279 279 279 279 279 280 280 280 280 280
302 298 296 296 295 293 292 290 289 288 287 286 285 284 283 282 281 280 279 279 279 279 279 278 279 279 280 281 281 281 280 279 279 279 278 278 277 277 276 276 276 277 277 278
297 299 296 295 291 289 288 287 286 285 285 284 283 281 280 280 279 278 278 277 276 276 277 277 277 278 279 280 279 278 277 277 278 278 277 277 276 276 275 274 273 272 273 274
294 292 291 290 288 287 286 286 285 283 282 281 280 279 279 278 276 276 276 275 275 275 275 276 277 277 278 278 278 278 277 277 277 276 276 275 275 274 273 273 272 271 272 272
293 291 290 289 288 287 286 284 282 280 278 277 276 276 275 275 274 273 273 273 273 271 273 274 275 276 277 277 277 277 276 276 276 275 274 274 273 273 272 271 270 269 269 269
293 292 290 289 288 287 285 284 282 281 280 279 277 276 275 274 273 271 271 271 272 272 272 273 273 274 275 275 275 275 275 275 275 274 273 273 272 271 270 270 269 268 268 268
286 285 286 286 285 283 282 281 280 278 277 275 275 274 273 271 270 270 270 271 272 272 272 272 273 273 273 274 274 273 273 273 273 272 272 272 271 270 270 269 268 268 267 267
282 282 282 281 280 279 278 277 275 275 274 274 273 271 271 270 269 269 270 270 270 270 270 271 271 272 272 272 272 272 272 272 271 271 271 270 270 269 269 269 268 268 267 266
278 278 277 276 276 276 274 274 274 273 273 273 272 270 269 269 270 269 269 267 268 268 270 270 270 270 270 271 271 271 271 270 270 269 269 269 269 268 268 268 267 267 266 266
275 275 274 274 273 274 274 275 274 273 273 273 272 270 270 269 269 269 268 267 267 269 269 270 270 269 269 269 269 269 269 269 269 268 268 268 267 267 267 266 266 266 265 265
274 274 274 274 273 273 274 274 274 273 273 273 272 271 271 269 269 268 267 267 267 268 269 269 268 269 268 268 268 268 268 267 267 267 267 266 266 266 265 265 265 264 264 264
275 274 274 274 274 273 273 273 273 272 271 271 271 270 270 270 269 268 267 267 267 268 268 268 267 267 267 267 267 266 266 266 266 266 266 265 265 265 265 264 264 263 263 262
275 275 275 274 274 274 273 273 273 273 273 272 272 271 271 270 269 268 268 268 267 267 267 267 267 266 266 266 266 266 265 265 265 264 264 264 264 264 264 263 263 263 262 262
276 276 275 275 276 275 274 274 273 272 272 272 271 271 271 270 269 268 268 268 268 267 267 267 266 266 266 265 265 265 265 265 265 264 264 263 263 263 263 263 262 262 261 261
279 278 277 278 276 276 275 274 273 273 273 272 271 270 270 269 269 269 268 268 268 268 267 267 267 266 266 266 265 265 265 265 265 264 264 263 263 263 262 262 262 262 261 261
276 275 275 274 275 275 275 274 274 273 273 272 271 270 270 269 269 269 269 268 268 268 268 267 267 267 266 266 265 265 265 264 264 264 264 263 263 263 263 262 262 261 261 261

GFSNGP_925_thetae_078.txt.gz
Theta_e
312 311 312 313 313 313 314 317 322 318 321 321 322 320 320 317 310 307 305 304 305 305 305 305 305 305 305 306 308 316 319 317 315 318 319 320 320 320 319 319 319 319 319 319
309 309 307 306 304 306 309 313 318 319 320 319 321 322 320 316 310 305 303 301 300 299 300 301 300 300 299 300 301 304 304 304 305 309 312 314 316 318 319 320 320 319 319 320
309 306 306 304 308 305 308 310 315 317 318 319 322 323 319 312 308 304 301 299 298 297 296 296 296 295 295 295 296 296 297 298 298 300 301 302 305 308 309 311 313 316 318 319
308 306 304 302 303 306 315 317 315 317 321 319 313 309 309 307 304 301 299 297 295 294 294 294 293 293 292 291 291 291 292 293 294 295 296 297 298 299 300 300 302 303 304 307
305 307 304 304 311 313 312 312 316 319 316 311 307 305 303 300 299 297 295 294 292 292 292 292 292 290 290 289 288 288 289 290 290 291 292 293 293 293 293 293 292 291 291 293
306 307 304 303 305 306 309 314 318 319 313 310 311 312 304 298 296 294 293 291 291 290 290 290 291 289 288 287 287 287 287 287 288 289 289 290 290 290 290 289 287 287 287 287
306 305 305 305 309 310 312 312 313 316 312 312 312 306 297 295 293 292 291 290 289 289 288 288 289 288 287 286 285 285 285 285 285 286 287 287 288 288 288 287 287 286 285 284
306 307 306 308 311 313 311 309 305 305 308 301 298 296 294 293 291 290 289 288 288 288 287 287 288 287 286 285 284 284 284 284 284 284 285 285 285 285 286 286 286 285 285 284
306 305 306 303 304 305 307 307 303 299 298 298 296 294 292 290 289 288 287 287 287 286 285 285 285 286 285 284 283 282 283 283 282 283 283 283 284 284 284 284 284 284 284 284
309 309 306 304 300 298 297 299 300 300 298 296 293 291 290 288 287 286 286 285 285 284 284 283 283 283 284 284 283 282 282 282 282 281 281 281 281 282 282 282 282 282 282 282
305 307 303 302 300 297 295 293 292 292 292 292 290 289 288 286 284 283 283 283 282 282 282 281 281 282 282 282 282 281 281 280 279 280 280 280 280 280 280 280 281 280 280 280
304 300 302 299 297 295 293 291 290 289 288 287 287 286 284 282 281 281 281 280 280 280 280 279 279 280 281 281 281 280 279 279 279 278 278 278 278 277 278 278 278 278 279 279
300 296 294 292 292 291 290 289 287 287 286 285 283 282 282 281 280 280 279 278 278 278 278 278 278 278 279 279 280 279 279 279 279 278 278 277 276 275 274 274 274 275 276 276
293 295 293 291 289 288 286 285 284 283 283 282 281 280 279 279 278 278 277 277 276 276 276 277 277 277 278 279 278 279 278 278 277 277 276 276 275 274 273 272 271 271 271 272
292 291 290 289 288 287 285 284 283 282 281 280 280 279 278 277 276 276 275 275 275 275 275 276 276 276 277 278 278 278 277 276 276 276 275 274 274 273 272 271 270 269 270 270
292 291 289 288 287 286 284 282 280 278 277 276 276 276 275 274 273 272 272 273 272 271 273 274 274 275 276 277 277 276 276 275 275 274 273 273 272 271 270 269 268 268 268 268
293 292 289 288 286 285 283 282 281 280 278 278 277 276 274 273 272 271 270 271 272 272 272 273 273 274 274 274 275 275 275 274 274 273 272 271 271 270 269 268 267 267 266 267
285 284 286 285 284 283 282 280 279 278 276 275 274 273 272 271 270 269 270 271 271 271 271 272 272 273 273 273 273 273 273 273 272 272 271 270 270 269 269 268 267 267 266 266
281 282 281 280 280 279 278 276 275 274 273 273 272 270 269 269 269 269 269 270 270 270 270 270 271 271 271 271 272 271 271 271 271 270 270 269 269 268 268 268 267 266 266 265
277 276 276 275 275 275 273 273 273 272 272 272 270 269 268 268 268 268 268 267 267 268 269 270 270 270 270 270 270 270 270 270 269 269 269 268 268 268 267 267 266 266 265 265
273 273 273 272 272 273 273 273 273 271 271 271 270 269 269 268 268 268 267 267 268 269 269 269 269 269 269 269 269 269 269 268 268 267 267 267 267 266 266 265 265 265 264 264
273 272 273 273 272 272 273 274 273 272 272 271 270 270 269 268 268 267 267 267 267 268 268 268 268 268 268 267 267 267 267 267 267 266 266 266 266 265 265 264 264 264 263 263
274 274 274 273 273 272 272 272 272 272 272 272 271 270 270 269 269 268 268 267 267 267 268 267 267 267 266 266 266 266 266 265 265 265 265 265 265 265 264 264 263 263 262 262
275 275 274 274 274 274 273 273 273 273 273 272 272 271 271 270 269 268 268 268 267 267 267 267 266 266 266 266 265 265 265 265 264 264 264 264 264 264 263 263 263 262 262 261
276 275 275 275 275 274 274 273 273 272 272 272 271 271 271 270 269 268 268 268 267 267 267 267 266 266 266 265 265 265 265 265 265 264 264 263 263 263 263 263 262 262 262 261
277 277 276 277 276 275 274 273 273 272 272 271 271 270 270 269 269 269 268 268 268 268 267 267 267 266 266 266 265 265 265 265 265 264 264 263 263 263 263 262 262 262 261 261
276 275 275 274 275 275 275 274 274 273 273 272 272 271 270 269 269 269 268 268 268 268 267 267 267 267 266 266 266 265 265 264 264 264 264 263 263 263 262 262 262 262 261 261

GFSNGP_925_thetae_081.txt.gz
Theta_e
311 311 312 313 310 309 310 312 314 312 314 315 317 321 320 312 308 305 303 302 301 301 301 302 302 303 304 305 309 315 313 313 312 316 319 319 318 319 319 319 319 318 318 318
310 309 306 305 304 304 306 309 310 312 314 315 316 320 319 311 307 304 301 300 298 298 297 297 297 298 299 299 300 302 302 302 304 307 309 309 312 316 317 316 316 318 318 318
307 307 305 304 305 304 307 313 314 316 315 315 320 322 318 310 305 302 299 297 297 296 295 294 293 293 294 294 295 295 296 296 297 299 300 301 302 305 305 306 308 309 308 310
307 306 302 303 304 306 307 312 309 313 319 318 314 309 307 305 303 300 297 295 294 294 293 292 292 291 290 291 291 292 292 292 293 295 296 296 296 296 295 296 296 296 295 294
307 307 304 306 307 306 306 305 317 319 316 311 306 303 300 299 297 296 294 293 292 292 292 291 290 289 290 290 289 289 289 290 291 292 293 293 292 291 291 290 289 288 288 288
307 305 303 303 308 310 310 310 311 312 315 310 309 312 302 298 294 293 291 291 290 290 290 290 289 288 288 288 288 287 287 288 288 289 290 290 290 289 288 287 286 286 286 285
308 307 306 309 310 311 305 312 309 306 312 314 310 302 295 293 291 290 291 290 289 288 288 288 288 287 287 286 286 286 286 286 286 287 287 287 288 288 287 287 286 285 285 284
307 308 307 306 309 311 309 308 303 301 301 298 295 293 292 291 290 289 289 289 288 287 286 287 287 286 285 284 284 284 284 284 284 284 285 286 286 286 286 287 286 285 285 284
307 307 306 302 303 300 304 305 302 299 296 295 293 291 290 289 288 288 287 286 286 285 284 284 285 285 284 283 284 284 283 283 283 283 283 284 284 284 284 285 284 284 284 283
308 308 306 303 299 297 296 295 296 296 295 292 290 290 288 287 286 285 284 284 284 284 283 283 282 283 283 283 283 283 283 282 282 282 282 282 282 282 283 283 283 283 283 283
304 304 302 299 298 297 294 292 291 290 291 290 289 287 285 285 284 283 282 282 282 282 282 281 281 281 282 283 282 282 281 281 281 280 280 280 280 280 280 280 281 281 281 281
303 298 299 296 293 292 291 291 290 289 287 286 285 284 283 282 282 281 281 281 281 281 280 280 279 279 279 280 280 280 280 279 279 279 279 279 278 277 277 277 278 278 278 278
298 294 293 291 290 290 289 288 287 286 285 284 283 282 282 281 280 280 279 279 279 279 279 278 277 277 277 279 280 279 277 277 277 277 277 277 276 276 275 273 274 274 275 275
294 293 292 291 289 286 285 284 283 283 282 282 281 281 280 279 279 278 278 277 277 277 277 276 276 275 277 278 279 278 277 277 277 276 276 275 275 274 274 273 273 271 270 271
291 291 290 288 287 286 284 284 283 282 281 280 280 279 278 277 276 276 276 275 275 275 274 274 274 275 276 277 278 277 276 275 275 274 274 274 273 273 272 271 271 270 270 269
291 290 289 288 286 285 283 282 280 279 278 277 277 276 275 274 274 273 273 273 273 272 272 273 274 274 275 276 276 276 275 275 274 274 273 273 272 272 271 270 269 269 268 268
291 290 288 287 286 284 283 282 281 280 279 278 277 275 275 274 273 272 271 271 272 272 272 272 272 273 274 274 275 274 273 273 273 273 272 271 271 270 269 269 268 267 266 266
285 286 287 285 284 283 282 280 279 278 277 275 274 273 272 272 271 269 270 270 271 271 271 271 272 272 272 272 273 273 272 272 272 271 271 270 270 269 269 268 268 267 266 265
282 282 282 281 281 280 278 277 275 274 273 272 272 269 269 269 269 269 269 270 270 270 269 270 271 271 271 271 271 271 271 271 270 270 269 269 268 268 268 267 267 266 266 265
277 277 277 276 276 276 274 273 273 272 272 271 269 269 268 268 268 268 269 267 268 268 269 269 269 269 269 270 270 270 269 269 269 268 268 267 267 266 266 266 265 265 264 264
273 273 272 272 272 273 273 273 272 271 270 271 270 269 269 268 268 267 268 270 267 268 269 269 269 268 268 268 268 268 268 268 267 267 267 266 266 265 265 265 264 264 264 263
273 272 272 272 272 271 273 273 272 271 270 270 270 269 268 268 267 267 267 268 267 268 268 267 267 267 267 267 267 267 267 266 266 266 266 265 265 265 264 264 264 263 263 262
273 273 272 272 272 271 271 272 272 272 271 271 270 269 270 269 269 269 269 267 267 267 267 267 266 266 266 266 266 265 265 265 265 264 264 264 264 264 264 263 263 263 262 262
274 274 273 273 273 273 273 272 272 272 272 271 271 270 270 269 268 268 267 267 267 267 267 266 266 266 265 265 265 265 265 265 264 264 264 263 263 263 263 263 263 262 262 262
275 275 275 275 275 275 274 273 273 272 272 272 271 271 270 270 269 268 268 268 267 267 267 267 266 266 266 265 265 265 265 265 265 264 264 264 263 263 263 263 262 262 262 262
277 276 276 276 276 275 274 274 273 273 272 272 271 271 270 269 269 268 268 268 268 268 267 267 267 267 266 266 266 265 265 265 264 264 264 264 263 263 263 263 262 262 262 262
276 276 275 274 274 274 274 274 273 273 272 272 271 271 270 270 269 269 269 268 268 268 268 267 267 267 267 266 266 266 265 265 264 264 264 263 263 263 263 262 262 262 262 261

GFSNGP_925_thetae_084.txt.gz
Theta_e
311 310 311 312 312 311 313 314 314 312 310 312 316 318 319 314 309 305 302 300 299 299 299 299 301 303 304 307 311 315 312 312 311 316 318 319 319 321 322 321 321 321 321 320
312 310 307 306 306 305 306 307 309 313 315 316 317 317 318 313 308 303 300 298 297 296 296 295 296 297 298 299 301 302 303 303 304 305 308 310 312 313 315 315 317 317 317 318
311 307 305 306 306 308 310 312 314 315 316 316 319 320 315 310 305 301 298 296 295 295 293 292 292 293 294 295 296 296 297 298 299 299 300 300 302 302 301 300 302 302 302 303
307 306 305 306 309 307 307 312 314 315 318 316 312 305 304 303 302 299 297 295 294 293 292 291 291 291 292 292 292 293 294 295 295 296 296 295 295 294 293 293 291 291 292 292
307 306 305 306 308 309 309 311 313 312 313 313 305 302 299 297 296 295 294 292 292 291 291 290 290 290 290 290 290 291 291 291 292 293 293 293 291 291 290 289 288 287 287 288
308 305 303 310 308 310 311 312 311 311 310 311 309 314 298 295 294 292 291 290 290 290 289 290 289 289 290 289 289 289 289 289 291 291 291 291 290 289 288 288 287 286 285 286
308 307 307 309 309 309 311 312 310 306 303 307 310 299 293 292 291 290 290 290 289 289 288 288 289 289 288 288 288 287 288 288 289 289 289 290 290 290 289 289 288 287 286 285
307 308 308 307 309 310 308 308 305 300 298 295 293 292 291 291 290 290 289 289 288 288 288 288 288 287 287 287 286 286 286 286 286 287 288 288 289 289 289 289 289 288 287 286
308 312 306 303 304 302 301 303 301 299 295 293 292 291 290 289 289 288 287 287 286 287 286 286 286 287 286 286 285 285 286 286 285 285 286 287 288 288 288 288 288 287 287 286
310 306 303 302 299 297 296 296 295 295 294 292 291 289 289 288 287 287 286 286 285 285 285 285 285 285 285 285 285 285 285 285 284 284 285 284 284 284 285 286 286 286 286 285
307 303 300 297 296 296 295 293 292 292 291 290 289 288 287 286 286 285 285 285 285 284 284 283 283 283 284 285 285 284 284 284 283 283 281 280 280 281 280 279 281 283 282 282
305 299 300 296 294 293 292 291 291 290 288 287 286 286 285 284 284 284 284 283 283 283 282 282 281 281 280 282 283 284 283 283 283 282 282 281 280 278 277 277 277 277 278 279
298 295 294 292 291 291 291 290 289 288 286 285 284 284 284 283 282 282 281 281 281 281 281 281 280 280 280 279 280 282 282 282 281 281 281 281 281 280 278 275 273 275 275 275
294 295 293 292 291 289 288 287 286 285 285 284 284 283 283 283 282 281 280 280 280 280 280 279 279 278 278 279 279 280 279 280 281 281 280 280 279 279 279 279 277 275 271 272
293 293 291 289 289 288 287 287 287 286 284 283 282 282 282 281 280 279 279 279 278 278 277 277 276 276 276 277 277 279 280 279 279 278 278 278 278 277 276 276 275 275 274 272
292 291 290 290 288 288 287 286 285 283 282 280 279 279 278 278 277 276 276 276 276 275 274 273 274 273 274 277 278 278 277 276 278 278 277 277 276 276 275 275 274 273 272 271
292 291 290 289 288 287 286 285 284 283 282 281 280 279 278 277 276 275 274 273 272 273 273 273 273 273 273 274 277 278 277 276 276 276 276 275 275 275 274 274 273 272 270 267
289 291 290 288 287 285 284 283 282 281 280 279 277 276 275 275 274 272 272 272 272 271 272 272 271 272 272 273 275 276 276 276 275 275 275 274 274 273 273 273 272 272 270 268
286 286 285 284 284 283 282 280 278 277 275 275 274 272 271 271 271 271 271 272 273 273 271 271 271 272 272 272 273 274 274 274 274 273 273 272 273 272 272 272 271 270 270 269
281 281 281 280 279 278 277 275 275 274 273 272 271 271 270 269 269 270 271 271 270 271 271 270 271 271 271 270 271 273 273 273 272 272 272 272 272 271 270 268 269 269 269 268
278 277 277 276 275 275 275 274 274 273 271 271 272 271 270 269 268 269 272 274 271 269 270 269 270 271 270 270 271 271 271 271 271 271 271 270 270 270 269 269 269 268 268 268
276 276 275 275 275 275 274 273 272 271 271 270 270 269 270 270 269 269 269 272 270 269 270 270 269 267 268 268 270 270 270 269 270 270 269 269 269 269 269 268 268 267 267 266
276 276 275 275 275 274 273 272 272 272 271 271 270 271 273 273 273 273 273 269 270 269 269 269 267 267 266 268 268 268 268 268 268 267 267 267 267 267 267 267 267 266 266 266
276 276 275 275 274 275 275 274 273 272 272 271 271 271 272 273 272 270 269 268 268 268 269 268 267 266 266 267 267 267 267 267 267 267 267 265 266 266 266 266 265 266 265 264
277 276 276 277 277 277 276 275 275 274 274 274 272 271 272 271 272 271 270 269 268 268 269 267 267 266 267 268 268 267 267 267 267 267 267 266 266 266 266 266 265 265 265 264
279 280 279 279 278 278 277 276 277 276 276 276 275 274 272 271 270 270 270 269 269 269 269 269 268 267 268 268 267 267 267 267 267 266 266 266 266 265 265 265 265 264 264 264
279 278 278 277 276 276 276 276 276 276 275 275 275 273 273 272 271 270 270 270 270 270 269 269 269 268 268 268 268 267 267 267 266 266 266 266 265 265 265 264 264 264 263 263

GFSNGP_925_thetae_087.txt.gz
Theta_e
314 315 316 317 317 317 318 318 318 315 312 312 317 317 322 319 314 310 305 302 298 297 297 296 297 299 301 304 312 317 315 314 313 318 320 320 319 319 320 320 320 321 321 320
317 311 311 311 311 310 309 308 308 309 313 319 321 321 319 314 309 306 302 299 296 295 294 294 294 295 297 298 301 304 305 304 305 306 309 310 313 312 313 314 314 314 314 312
316 312 309 309 308 308 309 312 315 319 319 317 312 306 305 306 303 300 298 296 295 293 292 292 292 293 293 294 296 297 298 299 300 300 300 299 300 303 303 303 305 303 300 300
312 308 310 310 309 308 308 314 313 313 314 312 305 300 298 297 298 296 295 295 295 293 291 291 290 291 291 292 292 293 294 295 295 295 294 294 294 293 293 295 294 294 293 294
311 312 306 308 309 310 311 315 313 312 312 311 303 301 298 295 294 293 293 291 291 290 290 290 290 290 290 290 290 291 291 292 293 292 291 291 290 289 289 289 288 288 289 289
308 306 307 312 310 309 310 314 311 309 308 309 309 313 300 294 293 292 290 290 289 288 289 289 289 289 289 289 289 289 289 290 291 291 291 290 290 289 288 288 287 287 286 286
309 307 309 310 310 310 311 315 309 306 302 299 300 298 293 292 292 290 290 289 289 289 288 287 288 288 289 288 288 288 289 289 289 290 290 291 291 290 290 289 289 288 287 286
308 308 310 308 310 313 307 307 304 301 297 294 293 292 292 292 292 291 290 290 289 289 288 288 287 287 288 288 288 287 287 288 288 289 290 290 291 291 290 290 290 288 287 286
314 313 307 304 304 302 301 300 300 298 296 294 293 292 292 291 290 290 289 288 288 288 287 287 287 287 287 286 287 287 287 287 287 286 286 288 289 289 290 289 289 288 287 286
311 305 303 302 302 299 297 296 296 297 295 293 292 291 290 290 290 289 288 288 287 286 286 285 286 287 286 287 287 286 285 284 283 284 284 284 283 283 283 286 286 287 286 285
306 303 302 300 298 297 295 294 294 293 292 291 291 290 290 289 289 288 287 286 286 285 285 284 284 284 285 287 287 286 286 285 284 282 281 279 279 280 280 279 281 283 281 282
305 300 301 297 296 294 293 293 292 291 289 289 288 287 286 286 286 286 285 285 284 284 283 283 283 282 282 284 285 285 285 285 284 284 283 281 279 277 277 278 278 278 278 279
299 295 295 294 293 294 293 291 290 289 288 287 286 286 285 285 284 284 284 283 283 283 282 282 281 281 282 281 282 283 284 284 283 283 283 283 283 281 278 275 274 275 275 275
296 296 295 294 293 291 291 290 289 288 287 287 286 286 286 285 285 284 284 283 283 283 282 281 280 280 280 281 282 282 282 282 283 283 283 282 282 282 282 281 279 275 272 273
295 294 293 292 291 291 291 290 290 288 287 286 285 285 284 283 283 282 281 281 280 279 278 278 277 278 279 280 279 281 282 281 281 280 280 280 280 279 279 279 278 278 276 275
294 293 292 292 291 290 290 289 288 285 284 283 282 282 281 281 280 278 277 277 277 276 276 275 275 275 276 279 281 281 279 279 280 280 280 279 279 279 278 278 277 275 274 273
295 294 293 291 291 290 289 288 287 286 284 283 282 282 281 280 278 277 275 275 274 275 275 274 274 274 275 277 279 280 280 278 278 279 279 278 278 278 277 277 276 274 271 270
292 292 291 290 289 287 286 285 285 283 282 280 278 277 276 276 275 274 274 274 274 273 273 273 273 274 274 275 277 278 278 278 278 277 277 277 277 277 276 276 275 275 274 271
288 288 287 287 286 285 284 282 280 278 278 277 276 275 274 274 274 274 274 275 276 276 273 273 273 273 273 273 276 277 277 277 277 276 276 276 276 275 275 275 274 274 273 272
284 284 283 283 282 281 279 278 277 276 274 274 273 273 272 271 272 273 273 273 272 273 273 272 273 273 273 272 274 275 276 276 275 274 274 275 275 275 273 271 272 272 272 272
281 280 279 279 278 278 277 276 276 274 273 274 274 273 272 271 270 271 276 278 273 271 271 271 271 272 272 271 273 274 274 274 274 274 274 274 273 273 272 272 272 272 271 271
280 279 278 278 278 277 276 275 274 273 273 272 271 272 273 274 272 273 271 274 273 270 272 272 271 268 269 271 273 273 272 272 272 272 273 272 272 272 272 271 271 271 270 270
279 279 278 278 278 276 275 274 274 274 273 272 273 275 275 275 275 276 277 272 273 270 272 271 267 267 268 271 271 271 271 270 271 271 271 270 270 270 270 270 270 269 269 269
279 278 278 277 277 277 278 276 276 275 274 274 272 272 275 277 276 274 272 270 269 270 270 269 268 267 268 270 270 270 270 270 270 270 270 269 269 269 269 269 268 268 268 268
279 278 278 278 279 280 278 277 277 276 276 276 275 274 273 274 274 274 273 272 269 269 272 270 268 267 268 270 270 270 270 270 270 269 269 269 269 269 268 268 268 268 267 267
280 282 281 281 281 280 280 279 280 279 278 278 277 276 275 274 273 272 272 271 271 271 271 272 271 270 270 270 270 270 269 269 269 269 269 268 268 268 268 267 267 267 267 267
281 281 280 280 279 279 278 279 279 279 278 277 277 277 275 275 274 272 272 272 272 272 272 271 271 271 270 270 269 269 269 269 269 269 268 268 267 268 267 267 267 266 266 266

GFSNGP_925_thetae_093.txt.gz
Theta_e
305 305 306 308 308 310 315 319 320 319 319 316 312 310 307 304 301 299 297 296 295 294 294 293 293 294 295 296 300 307 313 318 317 322 321 322 323 323 322 323 321 321 321 319
304 304 305 307 309 313 314 317 318 316 318 310 306 304 303 300 299 297 295 294 293 293 292 292 292 293 293 294 296 298 300 302 306 315 317 315 314 313 316 314 313 314 312 312
301 305 306 311 315 313 314 316 315 319 314 308 303 301 299 298 296 295 293 292 292 291 291 291 290 291 292 292 293 293 294 295 296 298 302 305 304 303 304 303 303 302 302 304
304 305 312 313 312 314 312 309 310 309 308 304 300 297 295 294 293 292 291 291 290 290 290 289 289 290 291 291 291 291 291 291 292 292 292 294 296 294 293 295 294 294 293 293
308 308 314 313 312 312 313 310 306 305 303 302 298 296 295 293 291 290 290 289 289 289 289 289 289 289 289 289 290 290 290 290 290 290 290 289 289 289 289 289 288 288 289 289
309 311 316 310 306 307 310 311 303 301 299 300 302 305 293 292 291 290 289 289 289 288 288 288 288 288 289 288 288 288 288 289 289 290 289 288 288 287 286 286 285 286 286 287
307 309 311 304 305 306 310 309 300 297 295 293 294 293 292 291 291 290 290 289 288 288 287 287 287 288 287 287 287 287 288 288 288 288 289 288 288 287 286 285 285 284 284 284
311 312 309 301 304 307 304 300 298 295 293 292 292 291 290 290 289 289 289 288 288 287 287 287 286 286 286 285 285 285 285 285 286 286 286 287 288 287 287 286 285 284 284 283
309 307 301 298 299 299 299 299 296 294 293 291 289 289 288 289 289 288 287 287 286 286 285 285 287 286 285 284 284 284 284 283 283 284 284 285 285 285 284 285 284 283 282 282
305 301 299 298 297 296 295 295 294 293 291 291 289 289 289 288 288 287 286 286 285 284 284 283 284 285 286 285 284 283 281 281 281 281 281 281 281 282 282 281 281 281 280 280
304 301 298 296 296 295 293 292 291 291 290 289 287 287 287 287 286 286 285 284 283 283 283 283 283 284 285 285 285 285 283 281 280 279 278 279 279 279 279 279 279 278 278 279
299 297 297 296 294 293 293 292 290 288 287 287 286 286 285 285 285 284 284 283 283 282 282 281 282 282 283 284 284 284 284 284 281 280 278 277 276 277 278 278 279 278 278 278
296 294 294 293 293 292 291 290 289 288 286 285 286 285 285 285 285 285 284 282 281 281 280 280 280 281 282 282 283 283 283 283 283 283 281 279 277 275 274 275 276 277 277 278
294 294 292 294 292 291 290 289 288 288 288 287 286 285 284 283 282 281 280 279 278 278 277 278 279 279 280 282 282 281 281 282 281 281 281 281 280 279 277 275 275 275 276 276
293 293 293 293 292 291 290 289 287 286 286 285 284 283 281 280 279 278 278 277 276 275 275 276 277 278 280 280 280 281 281 280 280 280 280 279 279 279 278 276 275 275 275 276
293 292 292 291 290 289 288 286 285 284 282 282 281 280 279 278 277 276 276 276 275 275 275 274 276 277 279 281 280 279 280 280 280 280 279 279 279 278 276 275 273 273 274 274
294 294 292 290 289 288 287 286 285 285 282 281 282 280 278 277 276 275 274 274 274 273 274 274 274 276 278 279 279 279 279 279 278 278 278 278 278 277 276 275 272 273 273 273
290 289 289 288 287 285 283 282 281 280 278 277 277 277 276 275 275 274 274 274 274 274 274 274 274 274 276 277 278 278 278 277 277 277 277 277 277 276 276 275 274 273 272 272
285 285 284 284 282 281 280 279 277 277 276 275 275 274 274 274 274 275 275 275 274 273 273 274 274 273 274 275 277 277 277 276 276 276 276 276 276 275 275 274 274 273 272 272
282 281 280 280 279 278 276 276 275 274 274 273 273 273 273 273 274 274 274 273 273 272 272 273 273 273 273 274 275 275 275 275 275 274 274 274 274 274 273 273 273 273 272 271
279 278 278 277 277 277 276 275 275 274 275 274 273 273 272 272 273 274 274 274 272 273 272 272 272 271 272 273 273 274 274 274 273 274 273 273 274 273 273 272 272 272 271 271
279 278 278 277 275 275 275 274 274 273 273 273 274 274 275 275 274 273 273 274 273 272 273 272 271 270 271 272 272 272 272 272 272 272 272 271 271 271 271 271 271 271 270 270
279 279 278 277 276 275 275 274 273 273 274 275 275 275 275 276 275 274 273 272 272 271 272 271 270 269 271 271 271 271 271 271 271 271 271 270 270 270 270 269 269 269 269 269
279 279 278 277 276 276 275 275 275 275 274 274 274 274 275 275 275 275 274 273 272 271 271 271 271 270 269 270 271 271 270 270 270 271 270 270 270 270 270 269 269 269 268 268
279 278 278 278 278 279 278 278 277 277 276 276 276 276 275 275 275 274 273 273 272 272 271 271 271 270 270 270 270 270 270 270 270 270 269 269 268 269 268 268 269 268 268 268
280 280 280 280 281 280 279 279 279 279 278 279 279 277 276 276 275 274 274 274 273 272 272 271 271 272 271 271 270 270 270 270 270 270 270 269 269 269 268 268 268 268 268 267
282 281 281 280 279 279 278 278 278 277 277 276 276 276 276 276 276 275 275 274 274 273 273 273 273 273 272 272 271 271 270 269 269 269 269 269 269 268 268 267 267 267 267 266

GFSNGP_925_thetae_096.txt.gz
Theta_e
304 303 302 302 303 303 306 309 316 317 318 311 309 306 303 301 299 297 295 294 293 293 292 292 292 292 294 295 297 299 304 312 314 322 323 324 324 323 323 324 322 321 320 319
301 301 301 304 304 306 306 314 315 318 315 307 304 302 300 298 296 295 293 293 292 291 291 291 291 291 292 293 295 295 297 298 302 308 312 313 317 317 316 315 315 317 315 314
299 301 303 302 304 305 313 311 315 316 311 305 301 298 296 295 294 292 292 291 291 290 290 290 290 290 290 291 292 293 292 293 294 296 297 299 300 304 305 303 304 303 304 305
301 303 305 311 312 310 309 308 307 307 305 301 297 295 293 292 291 290 290 290 289 289 289 289 289 289 289 289 290 291 291 291 291 291 291 292 293 292 294 295 295 295 294 295
303 305 305 307 309 309 311 306 303 302 301 299 296 294 293 292 290 289 289 288 288 288 288 288 288 288 288 288 288 288 289 289 290 290 289 288 289 287 287 288 288 289 289 290
305 307 310 307 302 302 307 307 299 297 296 301 298 302 293 291 291 290 288 288 287 287 287 287 287 287 286 286 286 286 287 287 288 288 288 289 287 286 285 285 285 286 286 286
304 307 309 302 301 303 309 305 297 294 293 294 294 293 291 291 290 289 288 287 286 286 287 286 286 285 285 284 284 284 285 285 286 287 287 287 287 286 286 285 284 284 284 284
306 308 308 299 301 305 303 297 295 293 292 291 289 288 287 288 287 287 286 285 285 285 285 285 285 284 284 283 283 283 284 284 284 285 285 286 286 285 284 284 283 283 283 283
305 302 299 298 298 298 297 296 295 294 291 290 289 287 287 288 288 286 285 284 284 284 284 284 285 285 284 283 282 282 282 282 282 283 284 284 284 283 283 283 282 282 282 282
302 299 298 297 295 294 294 293 293 292 290 289 288 287 287 287 286 285 284 283 283 283 283 283 284 285 285 284 283 282 281 280 280 280 280 281 281 282 281 281 280 280 281 281
299 298 297 295 295 293 292 291 291 289 288 287 286 286 285 285 284 284 283 282 282 282 282 282 282 283 284 284 284 282 281 280 279 278 279 279 279 279 279 279 280 279 280 280
298 296 296 294 292 293 291 290 288 287 286 285 284 284 283 283 283 283 282 281 281 281 280 280 281 282 283 283 283 283 283 281 279 277 277 277 277 278 279 279 279 279 279 280
294 293 293 292 292 290 289 288 287 285 285 284 284 285 284 282 281 281 280 279 279 279 279 279 280 281 281 281 282 282 282 282 282 279 278 275 275 275 276 277 278 279 279 280
295 293 293 292 291 289 288 288 288 287 286 285 283 282 281 280 279 279 278 277 277 277 277 278 279 279 280 281 280 280 281 280 280 281 280 278 276 275 275 275 275 276 276 278
291 291 291 291 290 290 288 286 286 285 284 282 280 280 279 278 278 277 277 276 276 275 275 276 277 278 280 279 280 281 280 280 280 279 279 279 278 276 275 275 275 275 275 275
292 292 289 288 289 288 286 285 284 282 281 280 279 278 277 276 276 275 275 275 274 273 274 275 276 276 279 279 279 279 279 279 279 279 279 278 277 276 274 273 273 274 274 273
292 292 290 289 287 286 285 284 284 282 282 281 279 278 277 276 275 274 273 274 274 274 274 274 274 276 278 278 278 278 278 278 278 278 278 277 277 276 273 273 273 273 273 273
289 289 288 287 286 284 283 282 281 280 279 277 277 276 275 274 274 274 273 274 274 274 274 274 273 274 276 277 277 277 277 277 276 276 277 276 276 275 275 274 273 272 272 272
285 285 284 284 283 282 280 279 277 277 276 276 275 274 274 274 275 275 275 274 273 273 272 273 273 273 275 275 276 276 276 276 276 276 276 275 275 275 274 274 273 272 272 271
280 280 280 279 278 277 275 276 275 275 274 275 274 274 273 273 274 274 273 273 272 272 272 272 272 272 273 274 274 274 275 275 274 274 274 274 274 273 273 273 273 272 272 271
277 277 276 276 275 275 275 274 274 273 273 273 273 272 273 273 274 274 274 274 272 272 273 272 272 271 272 273 273 273 273 273 273 273 273 273 273 273 273 272 272 272 271 270
276 275 275 275 274 274 275 275 274 274 273 273 273 274 274 273 272 274 275 274 273 272 272 272 271 269 271 272 272 271 271 271 271 271 271 271 271 271 271 271 271 270 270 270
278 276 275 275 274 274 274 273 273 274 275 276 275 275 276 275 275 273 273 273 273 272 271 271 271 270 269 271 271 270 270 271 270 270 270 270 269 269 269 269 269 269 269 269
278 277 276 275 275 274 274 274 274 274 275 274 275 276 276 276 275 274 274 273 273 271 271 271 271 270 270 270 270 270 270 269 270 270 270 269 269 269 269 269 269 269 268 268
278 278 276 276 276 276 276 276 276 275 275 275 275 275 275 275 275 275 274 273 272 272 271 271 271 271 271 270 270 270 270 270 270 269 269 269 269 268 268 268 268 268 268 268
278 278 278 278 279 279 278 277 277 277 276 277 276 276 276 275 275 275 274 274 273 273 272 272 272 272 271 271 271 270 270 270 270 269 269 269 269 269 268 268 268 268 267 267
280 280 280 279 278 278 278 278 278 277 276 276 275 275 275 276 275 275 275 274 273 273 273 273 273 272 272 272 272 271 271 270 270 269 269 269 269 268 268 268 267 267 267 267

GFSNGP_925_thetae_102.txt.gz
Theta_e
302 301 302 302 302 301 301 300 301 300 301 303 306 301 298 296 295 294 292 292 291 290 290 290 289 289 290 290 292 294 294 295 295 299 309 316 320 323 321 323 322 321 321 319
301 301 301 300 298 298 299 300 301 301 302 306 300 297 295 294 293 292 291 290 290 289 289 289 288 288 288 289 290 292 293 293 294 294 294 298 303 312 315 317 316 316 315 314
296 297 297 297 299 300 301 305 301 302 303 301 298 295 293 292 291 290 290 289 289 288 288 287 287 287 287 287 287 288 290 291 292 294 291 291 292 296 298 299 301 301 302 303
298 298 296 296 304 304 305 303 304 307 305 300 295 293 291 290 289 289 288 287 288 287 286 286 285 285 285 285 286 286 287 288 289 290 291 293 290 288 289 291 291 290 291 292
295 295 297 301 302 303 304 301 299 303 298 295 293 292 291 290 289 288 287 286 286 286 285 285 284 284 284 284 284 284 285 285 287 287 288 289 288 287 287 287 287 287 287 288
293 297 303 300 300 300 303 304 297 297 299 296 295 299 291 289 287 287 286 285 285 285 285 284 283 283 283 282 282 282 283 283 284 285 285 286 286 285 285 285 285 286 286 286
297 300 301 297 297 300 307 300 294 293 294 298 292 291 288 287 286 285 284 285 284 284 284 285 283 282 282 281 281 282 282 283 283 283 283 284 284 284 284 284 284 284 284 283
301 301 303 296 298 301 297 294 292 291 290 289 287 286 286 285 285 284 283 283 283 283 283 283 284 282 282 281 281 281 281 281 282 282 283 283 283 283 284 284 284 283 283 283
301 299 296 295 295 295 294 293 291 290 289 288 286 285 284 284 283 283 282 282 282 282 282 281 282 283 282 281 281 281 281 280 281 281 281 282 283 282 282 282 283 283 283 283
300 297 296 294 293 292 291 291 290 289 287 286 285 284 283 283 282 282 281 281 281 280 280 280 280 281 282 282 280 280 280 279 280 281 281 281 280 281 281 281 282 282 283 283
298 296 294 293 291 290 289 288 287 286 285 284 284 283 282 282 281 280 280 279 280 279 279 279 280 281 282 282 281 279 278 279 279 278 280 280 280 281 281 281 282 281 282 282
295 295 294 291 290 289 288 287 286 285 283 283 282 281 280 279 279 279 279 278 278 278 278 279 279 280 280 281 281 280 278 276 278 278 278 278 278 278 279 280 280 280 280 281
292 290 289 289 288 287 286 285 284 284 283 281 281 280 280 280 279 279 278 277 277 277 277 278 279 280 280 280 280 280 279 277 276 276 277 277 277 277 276 277 277 278 278 279
290 290 289 290 288 287 286 286 284 283 282 282 281 280 279 278 277 277 276 276 276 276 277 277 278 278 279 279 279 279 279 279 277 276 276 276 276 276 276 275 274 274 274 275
291 289 288 287 287 288 286 285 284 283 282 281 280 279 278 277 275 275 275 275 274 275 275 276 277 277 278 278 279 278 278 278 278 277 276 276 275 275 275 274 273 273 273 273
290 288 288 288 286 286 285 284 283 282 279 278 277 277 275 274 274 273 273 274 273 272 273 275 276 276 277 277 277 277 277 278 277 277 276 275 274 273 274 274 273 272 272 271
289 289 290 288 286 285 285 283 282 282 280 279 278 276 275 274 273 273 272 272 272 272 272 273 274 275 276 276 276 276 276 276 276 276 276 275 274 274 273 273 273 272 271 271
290 288 288 287 286 284 283 283 282 281 279 278 276 275 274 274 272 273 273 272 273 273 272 272 272 274 275 275 275 275 275 275 275 275 275 275 274 273 273 272 272 272 271 270
287 286 285 285 284 283 282 280 278 278 277 276 274 273 274 274 274 274 273 272 272 272 272 272 272 272 273 273 273 274 274 274 274 274 274 274 274 273 273 272 272 271 271 270
281 281 280 279 280 279 276 276 276 275 275 275 274 273 273 273 273 273 272 272 272 272 272 272 271 270 272 272 272 272 272 272 273 273 273 273 272 272 272 272 272 272 271 270
276 276 275 275 274 275 276 276 275 274 274 274 274 274 274 274 274 274 273 273 272 272 272 271 270 270 270 271 271 271 271 270 271 271 271 271 271 271 271 271 271 271 271 270
274 273 272 273 273 272 273 273 273 272 272 272 273 273 273 273 273 273 274 273 273 272 271 271 270 270 270 270 270 270 270 270 270 270 270 270 269 269 269 269 269 270 270 269
274 273 273 273 274 273 273 273 273 273 273 274 275 275 275 275 275 274 274 273 273 272 271 271 270 270 270 270 270 270 270 269 269 269 269 269 269 269 268 268 269 268 268 268
274 274 274 274 273 273 273 273 273 275 275 275 275 275 276 276 275 275 274 273 273 272 272 272 271 271 271 271 271 270 270 270 269 269 269 269 269 269 268 268 268 268 268 268
275 274 274 274 275 275 274 274 274 275 275 275 275 275 275 275 275 275 274 274 273 273 273 273 272 272 272 272 272 271 271 271 271 270 270 269 269 269 269 269 268 268 268 268
276 275 275 276 277 276 276 276 276 276 277 276 276 276 276 276 275 275 275 274 274 273 273 273 272 272 272 271 271 271 271 271 270 270 270 270 270 270 269 269 268 268 268 268
277 277 277 277 278 278 278 278 277 277 277 275 274 273 273 274 274 274 274 274 273 272 271 271 270 269 269 269 269 269 269 269 269 269 269 269 269 269 269 269 269 268 268 267

GFSNGP_925_thetae_105.txt.gz
Theta_e
301 301 302 302 302 302 302 301 302 302 301 302 302 304 299 296 295 294 292 291 291 290 290 288 288 287 287 288 288 290 293 294 293 296 298 304 312 318 322 323 321 320 321 321
301 300 300 299 298 299 299 299 299 299 301 301 301 298 296 294 293 292 291 290 289 289 288 288 287 286 286 287 287 288 290 291 292 293 295 293 297 298 299 310 313 311 315 316
298 297 297 296 297 299 300 303 302 302 302 302 298 296 294 293 292 291 290 288 288 288 287 287 286 285 285 285 285 286 287 288 290 291 292 292 292 291 291 293 297 299 299 304
298 298 295 297 304 303 304 302 300 303 306 301 295 292 291 290 290 289 288 287 287 287 286 285 284 284 284 284 284 284 285 285 286 288 289 291 293 290 289 289 289 290 291 292
298 298 297 299 300 302 302 303 298 300 297 294 293 291 290 289 288 288 287 286 286 286 285 284 283 283 283 283 283 283 283 283 284 285 286 287 288 288 288 286 287 287 287 289
297 298 299 299 298 298 300 305 296 296 296 294 294 299 291 288 287 286 286 285 285 284 285 284 283 282 282 282 282 282 282 282 283 283 284 284 285 285 286 285 284 284 284 284
298 299 299 297 296 299 306 300 293 293 296 297 293 292 288 287 286 285 284 285 284 283 283 283 283 282 282 281 281 281 282 282 282 283 283 284 284 285 284 284 284 283 282 282
299 300 301 295 297 299 296 293 291 291 290 289 288 287 286 285 285 284 284 283 283 283 282 282 282 282 281 280 280 281 281 282 282 282 282 283 283 284 284 285 284 284 283 282
301 300 296 294 294 293 293 292 291 290 289 288 286 285 285 284 284 283 282 282 282 282 282 281 281 281 281 280 281 281 280 280 282 282 282 282 283 283 283 284 284 284 284 283
300 296 295 293 292 291 291 290 289 288 287 286 285 284 284 284 283 282 282 281 281 281 281 281 281 281 281 281 280 280 280 280 280 281 280 282 282 283 283 283 283 283 283 283
297 295 294 292 291 290 289 288 287 286 286 285 284 284 283 282 282 281 281 280 280 280 280 280 280 280 280 281 280 279 280 280 280 280 280 280 280 281 281 281 281 282 282 282
297 295 294 291 290 289 288 287 286 285 284 283 282 281 281 280 279 279 279 279 279 279 279 279 279 278 279 279 279 279 278 278 278 279 279 278 279 278 278 279 279 280 279 279
293 291 290 289 288 287 287 286 285 284 283 282 281 281 280 280 279 279 278 278 278 278 278 278 278 278 279 279 279 278 278 277 277 277 277 277 277 277 277 275 275 276 277 277
290 290 290 289 287 287 286 285 284 283 282 282 281 280 279 278 278 278 277 277 276 276 276 276 276 277 278 278 278 278 278 277 277 276 276 276 276 276 275 275 275 274 273 274
290 289 289 288 287 286 285 284 284 283 282 281 280 279 278 277 276 275 276 275 275 275 274 275 275 276 277 277 277 277 278 277 276 275 274 274 275 275 274 274 273 273 273 272
288 288 288 288 287 286 286 285 284 282 280 278 277 276 275 274 274 273 273 273 273 272 273 274 275 275 276 276 276 276 276 277 276 276 275 275 274 274 274 273 273 272 271 271
290 290 289 288 287 286 286 284 283 282 280 279 277 276 275 274 273 272 271 271 272 272 272 272 273 274 275 275 275 276 276 275 275 275 275 274 274 274 273 273 273 272 271 270
290 290 289 288 287 285 284 283 282 281 280 278 276 274 273 273 272 271 271 272 272 272 272 272 271 273 274 274 274 274 274 274 274 274 274 274 273 273 273 273 272 272 271 269
289 288 287 286 285 284 283 281 279 278 276 275 274 273 273 273 273 272 272 272 272 272 271 271 271 272 272 272 272 272 273 273 273 273 273 273 272 272 272 272 272 271 270 270
283 282 282 281 281 280 278 277 276 275 274 274 274 274 273 273 273 272 272 272 272 272 271 270 270 270 271 271 271 271 271 271 271 271 271 271 271 271 271 271 271 270 270 270
278 278 276 275 274 276 276 276 275 273 273 274 274 273 273 273 273 274 274 274 272 271 271 270 270 270 270 270 270 270 270 270 270 270 270 269 270 270 270 270 270 269 270 269
275 274 273 273 273 272 274 275 274 273 273 273 273 274 274 274 274 273 273 273 272 271 271 271 270 270 270 270 270 270 269 269 269 269 269 269 269 269 269 268 268 268 269 268
274 273 273 273 273 272 272 272 272 272 273 274 274 274 274 274 274 274 274 273 272 272 271 271 271 271 270 270 270 270 270 270 269 269 269 269 269 269 268 268 268 268 268 268
273 273 273 273 273 273 273 272 273 275 275 275 275 275 275 274 274 274 274 273 273 272 272 272 272 272 271 271 271 271 271 271 270 270 270 270 269 269 269 269 268 268 268 268
274 273 273 273 274 275 274 273 274 274 274 274 274 275 274 274 275 274 274 274 273 273 273 272 272 272 271 271 270 270 270 270 269 269 269 269 269 269 269 269 269 268 268 268
276 275 275 276 276 275 275 275 276 275 275 275 275 275 274 274 275 274 274 273 273 272 272 271 270 269 269 268 268 268 267 267 267 267 267 267 267 268 268 268 268 268 268 268
276 276 277 277 277 277 277 276 277 276 276 275 274 273 273 273 274 273 273 272 271 271 270 269 268 267 267 267 266 266 266 265 265 265 265 265 265 265 266 265 266 267 267 267

GFSNGP_925_thetae_108.txt.gz
Theta_e
301 300 301 301 301 302 303 303 304 303 304 304 303 303 304 301 300 298 296 294 293 293 293 290 289 287 286 286 287 287 289 290 291 293 293 301 299 308 318 321 322 323 323 324
301 301 300 300 300 300 301 301 301 301 302 301 303 302 301 299 297 296 294 292 292 291 291 289 288 287 286 286 285 286 287 288 290 291 291 292 292 293 297 302 303 312 309 312
300 298 298 299 299 299 299 301 301 304 305 305 303 300 299 297 295 293 291 291 290 290 289 288 287 287 286 285 285 285 285 286 287 288 290 290 291 290 290 291 292 294 293 295
299 299 299 304 303 303 303 305 305 303 304 306 301 296 294 292 292 290 290 289 289 288 287 287 286 286 286 286 285 285 285 285 285 286 287 288 289 289 288 287 288 290 290 292
300 300 300 300 302 302 303 305 300 301 300 298 295 294 292 290 289 289 288 287 287 286 287 286 285 285 285 285 285 285 285 285 285 285 286 286 286 286 286 287 285 284 285 287
301 301 302 304 300 299 301 304 297 299 298 296 297 302 293 289 289 288 287 286 286 285 285 285 284 285 284 284 284 284 284 285 285 285 286 286 286 285 284 284 283 283 283 283
302 303 303 299 298 299 304 301 294 295 298 297 296 294 289 288 287 286 286 286 286 285 284 284 283 284 284 283 283 283 284 284 285 285 286 286 286 286 285 285 284 283 282 282
303 304 305 297 298 301 297 294 293 293 295 291 290 289 288 287 287 286 286 286 286 286 284 284 283 283 283 283 283 283 284 283 284 284 285 285 286 286 286 286 285 285 284 283
303 303 297 295 295 294 294 294 292 291 290 289 288 288 287 287 286 285 285 285 285 285 284 284 283 283 283 282 283 283 283 283 283 283 284 284 284 285 285 285 286 285 284 284
301 297 296 295 293 292 292 291 290 289 289 288 287 287 286 286 286 285 284 284 284 283 283 283 283 283 283 282 282 283 283 283 283 282 282 282 283 282 282 284 284 283 284 283
299 296 295 293 292 291 290 289 288 288 287 287 286 286 286 285 284 283 283 283 283 283 282 282 282 282 282 282 282 282 282 282 283 282 282 281 279 280 280 280 280 282 281 280
300 296 296 293 292 291 290 289 288 287 286 285 285 285 284 283 282 282 282 282 282 282 282 281 280 280 280 280 280 281 282 281 281 281 281 281 281 279 277 277 278 278 278 279
295 293 292 291 290 290 289 288 287 286 285 285 284 284 283 283 281 281 281 281 281 281 281 280 279 279 279 280 280 279 280 280 281 280 280 280 280 280 280 278 276 275 276 276
293 292 291 291 289 288 287 286 286 285 284 284 284 283 283 282 281 281 280 280 280 280 279 279 278 277 278 278 279 280 280 279 279 279 279 279 279 279 279 278 278 277 275 274
292 293 292 289 288 288 286 286 286 286 285 284 282 281 281 280 280 279 279 279 278 278 278 277 277 276 276 278 278 278 279 279 279 279 278 278 278 278 278 278 277 277 276 276
291 290 290 289 289 288 288 287 286 285 283 281 280 279 278 278 277 276 276 276 277 275 274 274 274 275 275 277 278 279 278 277 278 278 278 278 278 278 278 277 277 276 275 273
291 290 290 290 289 288 288 287 285 284 283 282 280 278 278 277 276 275 274 273 272 272 272 272 273 273 274 275 277 278 278 278 277 278 277 277 277 277 277 276 276 275 274 271
293 293 292 291 289 288 287 286 285 284 283 280 277 276 276 276 275 273 272 272 273 272 272 271 272 273 273 274 275 276 276 276 276 276 276 276 276 276 276 276 275 275 274 272
292 292 291 290 288 287 286 284 283 281 278 276 275 275 274 274 273 272 273 273 275 276 272 271 272 273 273 272 274 275 275 275 275 275 275 275 275 275 275 275 275 274 274 273
289 288 287 286 285 284 282 280 278 277 276 275 274 274 274 272 272 272 274 274 273 273 272 271 272 272 272 272 272 273 274 274 274 274 273 273 273 274 274 273 273 273 273 273
284 283 282 280 279 278 278 277 275 275 274 274 276 275 274 273 273 274 276 277 273 272 271 271 271 272 272 272 272 273 273 273 273 273 273 273 273 273 273 272 272 272 272 272
281 279 277 276 277 275 275 276 274 273 273 273 274 273 273 274 274 274 274 275 274 272 272 273 272 271 271 271 272 273 272 272 272 272 272 272 272 272 272 271 271 271 271 271
278 277 276 276 276 275 274 273 273 273 273 274 274 275 278 277 277 278 278 274 274 273 273 273 272 271 271 271 272 272 272 272 272 272 272 272 271 271 271 271 271 270 270 270
278 277 276 275 274 275 275 273 274 274 274 274 275 275 277 278 277 276 275 274 273 273 273 273 272 271 271 271 272 271 271 271 271 271 271 271 271 271 271 271 271 270 270 270
278 276 276 276 277 278 276 276 276 276 276 277 276 275 274 275 277 276 276 275 273 273 274 271 271 270 271 271 270 270 270 270 270 269 269 269 270 270 270 270 270 270 270 270
279 279 278 278 279 278 277 277 278 278 278 278 277 276 276 275 275 275 274 273 272 272 271 270 268 268 269 269 268 268 268 268 268 267 267 267 267 267 268 268 268 268 268 268
279 278 278 278 278 279 279 280 280 279 279 279 277 275 275 274 273 273 272 271 270 269 268 268 267 265 265 265 266 266 265 265 264 263 264 264 264 264 264 264 265 265 266 266

GFSNGP_925_thetae_114.txt.gz
Theta_e
307 307 305 304 304 305 305 306 308 309 308 307 306 306 306 305 304 302 299 297 295 294 292 291 290 289 289 288 288 288 288 288 288 288 288 288 289 290 291 292 293 295 304 308
306 305 304 303 303 303 302 303 304 304 305 305 305 308 307 303 302 299 296 294 293 292 290 289 289 288 288 288 288 288 288 288 288 287 287 286 286 287 288 289 288 290 293 293
304 302 302 302 302 302 302 303 303 305 306 307 307 304 300 300 297 295 293 291 290 290 289 288 288 287 287 287 287 287 288 288 288 288 287 286 285 285 285 285 287 286 287 289
305 302 302 302 305 305 305 304 305 307 306 305 301 297 295 294 293 291 290 289 288 288 287 287 287 287 286 287 287 287 287 287 287 288 288 287 286 285 284 284 284 284 285 286
304 302 302 303 305 304 303 302 304 304 304 302 298 295 293 291 290 289 289 287 287 286 286 286 286 286 286 286 286 286 286 286 286 287 287 287 287 287 286 285 284 284 283 283
302 303 303 306 303 302 302 303 299 299 301 301 299 302 293 290 290 289 288 287 286 285 285 285 285 285 286 286 286 285 285 285 285 285 286 286 286 287 286 286 285 284 284 284
304 305 307 301 300 301 304 301 296 297 298 302 298 294 290 289 289 288 289 288 287 286 286 285 285 284 285 285 285 285 284 283 283 284 284 284 285 285 285 285 284 284 283 283
305 307 308 298 301 302 298 296 295 297 296 293 291 290 289 289 289 288 288 288 287 286 286 285 285 285 284 285 285 285 286 284 281 281 283 281 282 282 284 282 283 282 282 282
304 304 297 296 295 296 296 295 294 294 293 291 290 289 289 288 288 287 287 286 286 286 285 285 284 285 286 285 285 285 286 286 284 282 280 281 280 280 280 282 281 281 281 280
303 299 297 296 294 294 293 293 292 292 291 290 289 289 288 288 287 287 286 286 285 285 284 284 284 283 284 285 285 284 285 285 284 285 282 280 279 278 278 278 279 280 278 279
300 298 296 295 294 292 291 291 290 290 290 289 289 288 287 287 287 286 286 285 285 284 283 283 282 282 283 283 284 284 284 284 284 284 284 281 279 278 277 277 277 277 278 278
304 299 298 295 293 292 291 290 290 289 289 288 287 287 286 286 285 285 285 284 284 283 282 281 281 281 281 282 282 283 283 283 283 283 283 283 283 280 279 279 278 277 277 277
298 296 296 294 293 291 290 290 289 288 288 288 287 286 285 285 284 284 284 284 283 282 281 280 280 280 281 281 281 282 282 283 282 282 283 282 282 282 282 281 279 278 278 278
295 294 293 293 292 291 290 289 289 288 288 288 287 286 285 285 285 284 283 282 282 281 280 279 278 278 279 281 281 280 281 282 282 282 282 282 282 281 281 281 280 278 276 276
294 295 294 292 291 290 289 289 289 288 288 287 287 286 285 284 283 282 282 280 279 278 277 277 276 276 278 280 282 280 279 280 281 281 281 281 281 281 280 280 280 278 275 275
293 292 291 291 290 290 290 290 289 288 287 286 285 284 284 282 280 278 277 277 277 276 275 275 274 275 277 279 281 281 281 279 280 280 280 279 280 280 280 279 279 279 276 274
292 292 291 291 290 290 290 290 288 287 285 284 283 283 282 281 279 278 277 275 275 275 275 274 275 275 276 278 279 279 279 279 279 279 278 278 279 279 278 278 278 278 277 276
294 293 293 292 291 291 290 289 288 287 286 283 280 279 279 279 277 276 276 276 275 274 274 275 275 275 274 277 278 278 278 278 278 278 277 277 277 277 277 277 276 276 276 276
294 293 293 291 290 290 289 288 285 281 280 279 278 277 277 276 276 276 277 277 278 276 274 275 275 275 275 276 277 277 277 277 277 277 276 276 276 276 276 276 275 275 275 275
294 292 291 290 288 287 285 282 280 279 279 278 277 276 276 275 276 277 276 275 274 275 274 275 276 275 274 275 276 276 276 276 276 276 276 276 276 275 275 275 275 274 274 274
290 289 288 286 284 283 283 281 279 279 278 278 278 277 276 275 276 277 278 278 275 274 275 275 274 273 273 274 276 275 275 275 275 275 275 275 275 275 274 274 274 274 274 273
286 285 284 283 282 281 280 279 278 278 278 278 277 276 276 276 276 276 277 278 275 275 276 276 274 273 272 274 274 274 274 274 274 274 274 273 273 273 273 273 273 273 273 273
284 283 282 281 281 281 279 278 278 277 276 276 276 277 279 280 281 281 278 277 276 275 276 274 273 272 272 274 274 273 272 272 272 272 271 271 271 271 271 271 271 271 271 271
283 282 281 281 280 279 278 277 277 277 276 277 279 279 280 280 279 278 276 276 275 275 274 272 271 271 273 272 272 271 271 270 270 269 269 268 267 268 268 268 268 268 267 268
282 282 281 280 281 281 279 278 278 278 278 278 278 278 279 279 279 278 277 275 274 275 272 271 270 270 270 269 268 269 268 268 267 267 266 265 266 265 265 265 265 265 265 265
282 282 282 282 282 280 280 280 280 280 281 280 280 279 278 277 277 276 275 274 273 273 272 271 269 268 267 267 267 266 266 266 265 264 264 264 263 263 263 262 262 262 262 262
283 283 283 283 282 282 281 282 282 282 282 280 279 279 277 276 275 274 274 273 272 271 270 269 268 267 266 265 265 264 264 263 262 261 261 261 260 260 259 259 259 259 260 260

GFSNGP_925_thetae_117.txt.gz
Theta_e
308 308 308 309 308 306 307 306 307 306 308 308 308 306 304 302 299 296 295 293 292 291 289 288 288 287 287 287 287 287 287 288 288 288 287 286 285 285 285 287 288 290 291 292
305 305 305 305 303 303 303 304 303 303 304 306 304 302 300 299 296 295 293 292 290 289 288 287 287 287 287 287 286 287 287 287 287 287 287 287 286 285 285 285 286 288 288 289
305 303 302 301 302 304 302 306 306 301 306 302 299 297 296 294 293 292 291 289 288 287 287 287 287 286 286 286 286 286 286 286 286 287 287 287 286 285 285 285 285 285 286 286
305 302 303 305 304 303 304 304 305 305 302 298 295 293 292 291 290 289 288 287 286 286 286 286 286 286 286 286 285 285 285 285 285 285 286 286 286 286 285 284 284 285 285 285
302 303 303 303 302 299 299 301 300 301 300 296 293 291 291 290 289 288 286 285 285 285 285 285 285 285 285 285 284 283 283 283 284 283 283 284 284 285 284 284 283 283 283 284
302 302 296 304 302 302 300 298 297 297 299 298 296 296 290 290 289 288 286 285 285 285 285 285 284 285 285 285 285 284 281 281 282 282 281 282 283 282 283 283 282 282 282 282
301 300 303 301 299 300 299 295 296 296 296 299 295 291 288 287 288 289 288 287 286 285 285 285 285 284 285 285 285 285 284 282 280 280 279 279 280 281 280 281 281 281 281 281
298 299 303 297 299 301 297 295 294 294 292 291 289 288 288 288 288 288 287 287 286 285 285 284 284 285 285 284 285 285 285 284 282 280 279 278 278 278 279 279 279 279 279 279
300 298 297 296 296 296 295 294 294 292 291 290 288 288 287 287 287 287 286 286 285 285 284 283 283 283 283 285 284 284 284 283 283 281 280 279 277 277 277 278 278 278 278 279
300 298 296 295 294 293 292 292 292 291 290 289 288 287 287 287 287 286 286 285 284 283 283 282 282 282 282 283 283 283 283 283 283 282 281 279 278 278 277 277 277 277 278 279
299 297 295 295 293 292 291 290 290 289 289 288 288 287 287 287 286 286 285 284 283 282 281 281 281 281 282 282 283 282 282 282 282 282 282 280 279 278 278 278 278 278 277 278
300 296 297 294 292 291 290 290 289 289 288 287 287 286 286 285 285 285 284 283 281 281 280 280 280 280 280 281 282 282 282 282 282 282 281 281 281 280 280 278 277 278 279 278
297 295 293 293 292 290 290 289 289 288 287 286 286 285 285 285 285 284 283 282 281 280 279 278 279 280 281 280 281 281 282 281 281 281 281 281 281 280 279 278 277 276 277 278
293 292 292 291 292 290 289 289 288 288 287 286 286 285 285 284 283 282 280 279 278 277 277 276 278 278 279 281 280 280 281 281 280 280 280 280 280 279 279 278 276 275 276 277
294 294 292 290 290 289 289 288 288 288 288 287 286 285 283 282 279 278 278 278 277 276 275 275 276 278 279 281 280 279 279 280 279 278 279 279 279 278 278 278 277 276 275 275
293 291 290 290 290 289 289 288 288 287 286 284 284 283 280 278 277 277 277 276 275 274 275 275 275 277 278 279 279 279 278 278 278 278 278 278 278 277 277 276 276 276 276 276
292 291 291 290 289 289 289 288 286 285 284 283 283 281 279 278 277 276 275 274 274 274 275 275 275 276 277 278 278 278 277 277 277 276 277 276 276 276 276 276 275 275 276 275
291 290 290 290 289 289 288 287 286 285 284 281 281 280 279 277 276 275 275 274 274 274 275 275 275 275 276 277 277 277 276 276 276 276 276 276 275 276 275 275 275 274 274 274
293 292 290 290 290 289 287 285 282 281 280 279 279 277 277 275 275 276 276 276 275 274 275 275 275 275 275 276 276 276 276 275 275 275 275 275 275 275 275 274 274 274 274 274
291 290 290 288 288 285 281 280 280 279 279 278 277 276 276 276 277 277 276 275 274 274 274 275 274 274 275 275 275 275 274 274 274 274 274 274 273 273 273 273 273 273 273 273
287 286 285 284 282 282 281 280 279 278 277 277 276 275 276 276 276 276 276 274 275 275 274 275 274 273 273 274 274 274 273 273 273 273 272 271 271 271 271 270 270 271 271 271
285 284 283 282 281 280 280 279 279 278 278 277 276 276 276 277 277 277 278 275 275 276 275 274 273 272 273 274 273 272 272 271 271 270 270 269 268 268 268 268 268 268 267 268
283 282 281 280 280 279 279 278 278 278 277 277 276 276 277 277 277 277 276 275 275 275 274 272 272 272 272 271 271 270 270 269 268 268 267 266 266 266 266 265 265 265 265 265
282 281 281 280 279 278 277 277 277 277 276 276 278 279 280 278 278 277 276 275 274 274 272 271 270 271 270 269 268 268 267 267 266 265 265 264 264 264 263 262 262 262 262 262
282 281 280 280 280 279 278 277 277 276 278 278 278 279 279 279 277 276 275 274 273 272 271 270 269 268 267 267 266 266 265 264 263 263 262 262 261 261 261 260 260 259 260 260
282 281 281 281 281 279 278 278 278 278 278 278 279 278 277 276 275 275 274 273 272 271 269 268 267 267 266 265 264 264 263 262 262 261 260 260 259 259 258 258 258 258 258 258
282 282 281 282 279 279 279 279 279 280 279 279 278 277 276 275 274 273 272 271 270 269 268 267 266 265 264 263 262 262 261 261 260 259 259 258 258 257 257 256 256 257 257 257